2016 Cux-Wetter.de -Die Nutzung der Wetterdaten nur mit ausdrcklicher Genehmigung
Wetterdaten: Donnerstag, 26.04.2018
Datum Zeit Temp. A. Feuchte A. Luftdruck Regen Wind Richtung Richtung Sonnenschein Solar Taupunkt Windchill Windben
26.04.2018 00:00 8,8 C 87 % 1008,1 hPa 0,0 l/m 11,2 km/h (2 Bft) SW 227 0 min 0 W/m 6,8 C 5,6 C 17,7 km/h (3 Bft)
26.04.2018 00:03 8,8 C 87 % 1008,1 hPa 0,0 l/m 11,2 km/h (2 Bft) W-SW 250 0 min 0 W/m 6,8 C 5,6 C 20,9 km/h (4 Bft)
26.04.2018 00:06 8,8 C 87 % 1008,0 hPa 0,0 l/m 9,9 km/h (2 Bft) SW 223 0 min 0 W/m 6,8 C 6,3 C 16,1 km/h (3 Bft)
26.04.2018 00:09 8,9 C 88 % 1008,0 hPa 0,0 l/m 7,6 km/h (2 Bft) SW 225 0 min 0 W/m 7,0 C 8,0 C 16,1 km/h (3 Bft)
26.04.2018 00:12 8,9 C 88 % 1008,0 hPa 0,0 l/m 11,0 km/h (2 Bft) SW 222 0 min 0 W/m 7,0 C 5,8 C 20,9 km/h (4 Bft)
26.04.2018 00:15 8,9 C 87 % 1008,0 hPa 0,0 l/m 13,3 km/h (3 Bft) SW 225 0 min 0 W/m 6,9 C 4,6 C 20,9 km/h (4 Bft)
26.04.2018 00:18 8,8 C 87 % 1008,0 hPa 0,0 l/m 10,2 km/h (2 Bft) S-SW 209 0 min 0 W/m 6,8 C 6,1 C 14,5 km/h (3 Bft)
26.04.2018 00:21 8,8 C 87 % 1008,0 hPa 0,0 l/m 11,7 km/h (2 Bft) SW 236 0 min 0 W/m 6,8 C 5,3 C 20,9 km/h (4 Bft)
26.04.2018 00:24 8,8 C 87 % 1008,0 hPa 0,0 l/m 9,8 km/h (2 Bft) SW 231 0 min 0 W/m 6,8 C 6,4 C 14,5 km/h (3 Bft)
26.04.2018 00:27 8,8 C 87 % 1007,9 hPa 0,0 l/m 8,1 km/h (2 Bft) W-SW 238 0 min 0 W/m 6,8 C 7,5 C 16,1 km/h (3 Bft)
26.04.2018 00:30 8,8 C 87 % 1007,9 hPa 0,0 l/m 7,5 km/h (2 Bft) SW 217 0 min 0 W/m 6,8 C 8,0 C 11,3 km/h (2 Bft)
26.04.2018 00:33 8,8 C 87 % 1007,9 hPa 0,0 l/m 8,1 km/h (2 Bft) W-SW 256 0 min 0 W/m 6,8 C 7,5 C 12,9 km/h (3 Bft)
26.04.2018 00:36 8,8 C 87 % 1007,9 hPa 0,0 l/m 7,1 km/h (2 Bft) S-SW 206 0 min 0 W/m 6,8 C 8,3 C 14,5 km/h (3 Bft)
26.04.2018 00:39 8,8 C 87 % 1007,9 hPa 0,0 l/m 7,1 km/h (2 Bft) SW 232 0 min 0 W/m 6,8 C 8,3 C 16,1 km/h (3 Bft)
26.04.2018 00:42 8,8 C 87 % 1007,9 hPa 0,0 l/m 7,0 km/h (2 Bft) SW 232 0 min 0 W/m 6,8 C 8,3 C 14,5 km/h (3 Bft)
26.04.2018 00:45 8,8 C 87 % 1007,8 hPa 0,0 l/m 8,0 km/h (2 Bft) SW 227 0 min 0 W/m 6,8 C 7,6 C 14,5 km/h (3 Bft)
26.04.2018 00:48 8,8 C 87 % 1007,8 hPa 0,0 l/m 7,5 km/h (2 Bft) SW 222 0 min 0 W/m 6,8 C 8,0 C 11,3 km/h (2 Bft)
26.04.2018 00:51 8,7 C 87 % 1007,8 hPa 0,0 l/m 8,1 km/h (2 Bft) W-SW 238 0 min 0 W/m 6,7 C 7,4 C 14,5 km/h (3 Bft)
26.04.2018 00:54 8,7 C 87 % 1007,8 hPa 0,0 l/m 6,2 km/h (2 Bft) SW 216 0 min 0 W/m 6,7 C 8,7 C 12,9 km/h (3 Bft)
26.04.2018 00:57 8,7 C 87 % 1007,8 hPa 0,0 l/m 6,9 km/h (2 Bft) SW 221 0 min 0 W/m 6,7 C 8,3 C 12,9 km/h (3 Bft)
26.04.2018 01:00 8,7 C 87 % 1007,9 hPa 0,0 l/m 6,3 km/h (2 Bft) S-SW 205 0 min 0 W/m 6,7 C 8,7 C 11,3 km/h (2 Bft)
26.04.2018 01:03 8,6 C 87 % 1007,8 hPa 0,0 l/m 6,0 km/h (2 Bft) SW 215 0 min 0 W/m 6,6 C 8,6 C 8,0 km/h (2 Bft)
26.04.2018 01:06 8,6 C 87 % 1007,8 hPa 0,0 l/m 5,7 km/h (2 Bft) S-SW 208 0 min 0 W/m 6,6 C 8,6 C 9,7 km/h (2 Bft)
26.04.2018 01:09 8,6 C 88 % 1007,8 hPa 0,0 l/m 5,5 km/h (2 Bft) SW 227 0 min 0 W/m 6,7 C 8,6 C 9,7 km/h (2 Bft)
26.04.2018 01:12 8,5 C 88 % 1007,8 hPa 0,0 l/m 6,8 km/h (2 Bft) SW 226 0 min 0 W/m 6,6 C 8,2 C 11,3 km/h (2 Bft)
26.04.2018 01:15 8,5 C 88 % 1007,7 hPa 0,0 l/m 6,8 km/h (2 Bft) SW 225 0 min 0 W/m 6,6 C 8,2 C 11,3 km/h (2 Bft)
26.04.2018 01:18 8,5 C 88 % 1007,7 hPa 0,0 l/m 7,4 km/h (2 Bft) S-SW 203 0 min 0 W/m 6,6 C 7,7 C 11,3 km/h (2 Bft)
26.04.2018 01:21 8,5 C 88 % 1007,7 hPa 0,0 l/m 6,0 km/h (2 Bft) S-SW 203 0 min 0 W/m 6,6 C 8,5 C 9,7 km/h (2 Bft)
26.04.2018 01:24 8,5 C 88 % 1007,6 hPa 0,0 l/m 7,1 km/h (2 Bft) SW 219 0 min 0 W/m 6,6 C 8,0 C 9,7 km/h (2 Bft)
26.04.2018 01:27 8,4 C 88 % 1007,6 hPa 0,0 l/m 5,3 km/h (1 Bft) SW 226 0 min 0 W/m 6,5 C 8,4 C 8,0 km/h (2 Bft)
26.04.2018 01:30 8,4 C 88 % 1007,6 hPa 0,0 l/m 5,7 km/h (2 Bft) S-SW 204 0 min 0 W/m 6,5 C 8,4 C 9,7 km/h (2 Bft)
26.04.2018 01:33 8,4 C 89 % 1007,6 hPa 0,0 l/m 7,7 km/h (2 Bft) SW 217 0 min 0 W/m 6,7 C 7,4 C 11,3 km/h (2 Bft)
26.04.2018 01:36 8,5 C 89 % 1007,6 hPa 0,0 l/m 6,5 km/h (2 Bft) SW 217 0 min 0 W/m 6,8 C 8,4 C 9,7 km/h (2 Bft)
26.04.2018 01:39 8,5 C 89 % 1007,6 hPa 0,0 l/m 4,8 km/h (1 Bft) W-SW 254 0 min 0 W/m 6,8 C 8,5 C 8,0 km/h (2 Bft)
26.04.2018 01:42 8,5 C 89 % 1007,5 hPa 0,0 l/m 5,0 km/h (1 Bft) S 190 0 min 0 W/m 6,8 C 8,5 C 9,7 km/h (2 Bft)
26.04.2018 01:45 8,5 C 89 % 1007,5 hPa 0,0 l/m 4,1 km/h (1 Bft) S 190 0 min 0 W/m 6,8 C 8,5 C 6,4 km/h (2 Bft)
26.04.2018 01:48 8,4 C 89 % 1007,5 hPa 0,0 l/m 4,2 km/h (1 Bft) S-SW 193 0 min 0 W/m 6,7 C 8,4 C 6,4 km/h (2 Bft)
26.04.2018 01:51 8,4 C 89 % 1007,4 hPa 0,0 l/m 4,3 km/h (1 Bft) S-SW 206 0 min 0 W/m 6,7 C 8,4 C 8,0 km/h (2 Bft)
26.04.2018 01:54 8,4 C 89 % 1007,4 hPa 0,0 l/m 4,3 km/h (1 Bft) S-SW 207 0 min 0 W/m 6,7 C 8,4 C 8,0 km/h (2 Bft)
26.04.2018 01:57 8,4 C 89 % 1007,4 hPa 0,0 l/m 5,0 km/h (1 Bft) S-SW 213 0 min 0 W/m 6,7 C 8,4 C 8,0 km/h (2 Bft)
26.04.2018 02:00 8,4 C 89 % 1007,3 hPa 0,0 l/m 4,4 km/h (1 Bft) S-SW 212 0 min 0 W/m 6,7 C 8,4 C 6,4 km/h (2 Bft)
26.04.2018 02:03 8,3 C 89 % 1007,3 hPa 0,0 l/m 4,1 km/h (1 Bft) S-SW 212 0 min 0 W/m 6,6 C 8,3 C 6,4 km/h (2 Bft)
26.04.2018 02:06 8,3 C 89 % 1007,4 hPa 0,0 l/m 3,5 km/h (1 Bft) S-SW 212 0 min 0 W/m 6,6 C 8,3 C 4,8 km/h (1 Bft)
26.04.2018 02:09 8,2 C 89 % 1007,3 hPa 0,0 l/m 4,6 km/h (1 Bft) SW 220 0 min 0 W/m 6,5 C 8,2 C 8,0 km/h (2 Bft)
26.04.2018 02:12 8,2 C 89 % 1007,3 hPa 0,0 l/m 4,0 km/h (1 Bft) S-SW 207 0 min 0 W/m 6,5 C 8,2 C 6,4 km/h (2 Bft)
26.04.2018 02:15 8,1 C 89 % 1007,2 hPa 0,0 l/m 4,0 km/h (1 Bft) S-SW 207 0 min 0 W/m 6,4 C 8,1 C 6,4 km/h (2 Bft)
26.04.2018 02:18 8,0 C 89 % 1007,3 hPa 0,0 l/m 4,0 km/h (1 Bft) S-SW 199 0 min 0 W/m 6,3 C 8,0 C 8,0 km/h (2 Bft)
26.04.2018 02:21 7,9 C 89 % 1007,2 hPa 0,0 l/m 4,0 km/h (1 Bft) S-SW 198 0 min 0 W/m 6,2 C 7,9 C 6,4 km/h (2 Bft)
26.04.2018 02:24 7,9 C 90 % 1007,2 hPa 0,0 l/m 4,7 km/h (1 Bft) SW 215 0 min 0 W/m 6,4 C 7,9 C 9,7 km/h (2 Bft)
26.04.2018 02:27 7,9 C 90 % 1007,2 hPa 0,0 l/m 3,7 km/h (1 Bft) SW 215 0 min 0 W/m 6,4 C 7,9 C 6,4 km/h (2 Bft)
26.04.2018 02:30 7,9 C 90 % 1007,2 hPa 0,0 l/m 3,4 km/h (1 Bft) S-SW 209 0 min 0 W/m 6,4 C 7,9 C 6,4 km/h (2 Bft)
26.04.2018 02:33 7,8 C 90 % 1007,2 hPa 0,0 l/m 4,8 km/h (1 Bft) S-SW 200 0 min 0 W/m 6,3 C 7,8 C 12,9 km/h (3 Bft)
26.04.2018 02:36 7,9 C 91 % 1007,2 hPa 0,0 l/m 6,1 km/h (2 Bft) S-SW 202 0 min 0 W/m 6,5 C 7,9 C 9,7 km/h (2 Bft)
26.04.2018 02:39 7,9 C 91 % 1007,2 hPa 0,0 l/m 4,3 km/h (1 Bft) S-SW 192 0 min 0 W/m 6,5 C 7,9 C 6,4 km/h (2 Bft)
26.04.2018 02:42 7,9 C 91 % 1007,1 hPa 0,0 l/m 3,2 km/h (1 Bft) S-SW 192 0 min 0 W/m 6,5 C 7,9 C 4,8 km/h (1 Bft)
26.04.2018 02:45 7,9 C 91 % 1007,1 hPa 0,0 l/m 4,2 km/h (1 Bft) S-SW 192 0 min 0 W/m 6,5 C 7,9 C 6,4 km/h (2 Bft)
26.04.2018 02:48 7,8 C 91 % 1007,1 hPa 0,0 l/m 6,5 km/h (2 Bft) S 171 0 min 0 W/m 6,4 C 7,7 C 9,7 km/h (2 Bft)
26.04.2018 02:51 7,8 C 91 % 1007,1 hPa 0,0 l/m 6,0 km/h (2 Bft) S 172 0 min 0 W/m 6,4 C 7,8 C 9,7 km/h (2 Bft)
26.04.2018 02:54 7,8 C 91 % 1007,2 hPa 0,0 l/m 6,1 km/h (2 Bft) S 171 0 min 0 W/m 6,4 C 7,8 C 9,7 km/h (2 Bft)
26.04.2018 02:57 7,8 C 91 % 1007,1 hPa 0,0 l/m 6,1 km/h (2 Bft) S 171 0 min 0 W/m 6,4 C 7,8 C 8,0 km/h (2 Bft)
26.04.2018 03:00 7,8 C 91 % 1007,1 hPa 0,0 l/m 6,4 km/h (2 Bft) S-SO 165 0 min 0 W/m 6,4 C 7,8 C 11,3 km/h (2 Bft)
26.04.2018 03:03 7,8 C 91 % 1007,0 hPa 0,0 l/m 6,8 km/h (2 Bft) S 169 0 min 0 W/m 6,4 C 7,5 C 14,5 km/h (3 Bft)
26.04.2018 03:06 7,7 C 91 % 1007,1 hPa 0,0 l/m 7,3 km/h (2 Bft) S 180 0 min 0 W/m 6,3 C 7,0 C 11,3 km/h (2 Bft)
26.04.2018 03:09 7,7 C 91 % 1007,0 hPa 0,0 l/m 5,5 km/h (2 Bft) S 177 0 min 0 W/m 6,3 C 7,7 C 9,7 km/h (2 Bft)
26.04.2018 03:12 7,7 C 91 % 1007,0 hPa 0,0 l/m 5,1 km/h (1 Bft) S 190 0 min 0 W/m 6,3 C 7,7 C 9,7 km/h (2 Bft)
26.04.2018 03:15 7,7 C 92 % 1007,0 hPa 0,0 l/m 6,4 km/h (2 Bft) S 171 0 min 0 W/m 6,5 C 7,7 C 11,3 km/h (2 Bft)
26.04.2018 03:18 7,7 C 92 % 1006,9 hPa 0,0 l/m 7,0 km/h (2 Bft) S 179 0 min 0 W/m 6,5 C 7,2 C 11,3 km/h (2 Bft)
26.04.2018 03:21 7,7 C 92 % 1006,9 hPa 0,0 l/m 7,5 km/h (2 Bft) S-SO 163 0 min 0 W/m 6,5 C 6,8 C 9,7 km/h (2 Bft)
26.04.2018 03:24 7,7 C 92 % 1006,9 hPa 0,0 l/m 7,0 km/h (2 Bft) S 180 0 min 0 W/m 6,5 C 7,2 C 12,9 km/h (3 Bft)
26.04.2018 03:27 7,7 C 92 % 1006,9 hPa 0,0 l/m 6,2 km/h (2 Bft) S 184 0 min 0 W/m 6,5 C 7,7 C 11,3 km/h (2 Bft)
26.04.2018 03:30 7,7 C 92 % 1006,8 hPa 0,0 l/m 5,0 km/h (1 Bft) S 173 0 min 0 W/m 6,5 C 7,7 C 11,3 km/h (2 Bft)
26.04.2018 03:33 7,7 C 92 % 1006,8 hPa 0,0 l/m 6,2 km/h (2 Bft) S 186 0 min 0 W/m 6,5 C 7,7 C 9,7 km/h (2 Bft)
26.04.2018 03:36 7,7 C 92 % 1006,8 hPa 0,0 l/m 5,4 km/h (2 Bft) S-SW 192 0 min 0 W/m 6,5 C 7,7 C 9,7 km/h (2 Bft)
26.04.2018 03:39 7,7 C 92 % 1006,8 hPa 0,0 l/m 6,3 km/h (2 Bft) S-SW 204 0 min 0 W/m 6,5 C 7,7 C 11,3 km/h (2 Bft)
26.04.2018 03:42 7,8 C 93 % 1006,8 hPa 0,0 l/m 7,7 km/h (2 Bft) S-SW 204 0 min 0 W/m 6,7 C 6,8 C 14,5 km/h (3 Bft)
26.04.2018 03:45 7,8 C 93 % 1006,9 hPa 0,0 l/m 7,7 km/h (2 Bft) SW 220 0 min 0 W/m 6,7 C 6,8 C 12,9 km/h (3 Bft)
26.04.2018 03:48 7,8 C 93 % 1006,9 hPa 0,0 l/m 7,0 km/h (2 Bft) S-SW 204 0 min 0 W/m 6,7 C 7,3 C 12,9 km/h (3 Bft)
26.04.2018 03:51 7,9 C 93 % 1006,9 hPa 0,0 l/m 7,0 km/h (2 Bft) SW 223 0 min 0 W/m 6,8 C 7,4 C 9,7 km/h (2 Bft)
26.04.2018 03:54 7,9 C 93 % 1007,0 hPa 0,0 l/m 9,6 km/h (2 Bft) SW 225 0 min 0 W/m 6,8 C 5,5 C 19,3 km/h (3 Bft)
26.04.2018 03:57 8,1 C 93 % 1007,1 hPa 0,0 l/m 15,3 km/h (3 Bft) W-SW 252 0 min 0 W/m 7,0 C 2,7 C 30,6 km/h (5 Bft)
26.04.2018 04:00 8,2 C 93 % 1007,0 hPa 0,2 l/m 16,2 km/h (3 Bft) W-SW 248 0 min 0 W/m 7,1 C 2,4 C 25,7 km/h (4 Bft)
26.04.2018 04:03 8,2 C 93 % 1007,0 hPa 0,0 l/m 14,1 km/h (3 Bft) W-SW 241 0 min 0 W/m 7,1 C 3,4 C 27,4 km/h (5 Bft)
26.04.2018 04:06 8,2 C 93 % 1007,0 hPa 0,2 l/m 14,5 km/h (3 Bft) W 279 0 min 0 W/m 7,1 C 3,2 C 25,7 km/h (4 Bft)
26.04.2018 04:09 8,1 C 93 % 1007,1 hPa 0,2 l/m 14,7 km/h (3 Bft) W 269 0 min 0 W/m 7,0 C 3,0 C 25,7 km/h (4 Bft)
26.04.2018 04:12 7,9 C 92 % 1007,2 hPa 0,2 l/m 12,0 km/h (2 Bft) W-SW 242 0 min 0 W/m 6,7 C 4,1 C 22,5 km/h (4 Bft)
26.04.2018 04:15 7,8 C 92 % 1007,1 hPa 0,2 l/m 10,2 km/h (2 Bft) W-SW 252 0 min 0 W/m 6,6 C 5,0 C 19,3 km/h (3 Bft)
26.04.2018 04:18 7,7 C 92 % 1007,1 hPa 0,2 l/m 8,6 km/h (2 Bft) W 275 0 min 0 W/m 6,5 C 6,0 C 17,7 km/h (3 Bft)
26.04.2018 04:21 7,7 C 92 % 1007,1 hPa 0,2 l/m 9,2 km/h (2 Bft) SW 225 0 min 0 W/m 6,5 C 5,6 C 14,5 km/h (3 Bft)
26.04.2018 04:24 7,7 C 92 % 1007,2 hPa 0,2 l/m 10,3 km/h (2 Bft) SW 223 0 min 0 W/m 6,5 C 4,9 C 19,3 km/h (3 Bft)
26.04.2018 04:27 7,6 C 92 % 1007,2 hPa 0,2 l/m 9,7 km/h (2 Bft) SW 218 0 min 0 W/m 6,4 C 5,1 C 16,1 km/h (3 Bft)
26.04.2018 04:30 7,6 C 92 % 1007,2 hPa 0,2 l/m 11,4 km/h (2 Bft) SW 224 0 min 0 W/m 6,4 C 4,1 C 19,3 km/h (3 Bft)
26.04.2018 04:33 7,6 C 92 % 1007,2 hPa 0,4 l/m 11,4 km/h (2 Bft) W-SW 241 0 min 0 W/m 6,4 C 4,1 C 19,3 km/h (3 Bft)
26.04.2018 04:36 7,5 C 92 % 1007,2 hPa 0,4 l/m 9,1 km/h (2 Bft) S-SW 211 0 min 0 W/m 6,3 C 5,4 C 17,7 km/h (3 Bft)
26.04.2018 04:39 7,4 C 92 % 1007,1 hPa 0,4 l/m 8,1 km/h (2 Bft) SW 215 0 min 0 W/m 6,2 C 6,0 C 12,9 km/h (3 Bft)
26.04.2018 04:42 7,4 C 92 % 1007,1 hPa 0,2 l/m 7,0 km/h (2 Bft) S-SW 213 0 min 0 W/m 6,2 C 6,9 C 11,3 km/h (2 Bft)
26.04.2018 04:45 7,3 C 92 % 1007,1 hPa 0,0 l/m 5,9 km/h (2 Bft) S 190 0 min 0 W/m 6,1 C 7,3 C 9,7 km/h (2 Bft)
26.04.2018 04:48 7,3 C 92 % 1007,0 hPa 0,0 l/m 4,7 km/h (1 Bft) S-SW 196 0 min 0 W/m 6,1 C 7,3 C 8,0 km/h (2 Bft)
26.04.2018 04:51 7,3 C 92 % 1007,0 hPa 0,0 l/m 3,7 km/h (1 Bft) S-SW 197 0 min 0 W/m 6,1 C 7,3 C 6,4 km/h (2 Bft)
26.04.2018 04:54 7,3 C 92 % 1007,0 hPa 0,0 l/m 3,8 km/h (1 Bft) S-SW 197 0 min 0 W/m 6,1 C 7,3 C 6,4 km/h (2 Bft)
26.04.2018 04:57 7,3 C 92 % 1007,0 hPa 0,0 l/m 4,2 km/h (1 Bft) S-SW 198 0 min 0 W/m 6,1 C 7,3 C 6,4 km/h (2 Bft)
26.04.2018 05:00 7,3 C 92 % 1007,0 hPa 0,0 l/m 5,0 km/h (1 Bft) S-SW 203 0 min 0 W/m 6,1 C 7,3 C 8,0 km/h (2 Bft)
26.04.2018 05:03 7,3 C 92 % 1007,0 hPa 0,0 l/m 4,4 km/h (1 Bft) S-SW 206 0 min 0 W/m 6,1 C 7,3 C 8,0 km/h (2 Bft)
26.04.2018 05:06 7,3 C 92 % 1007,0 hPa 0,0 l/m 5,0 km/h (1 Bft) S-SW 203 0 min 0 W/m 6,1 C 7,3 C 8,0 km/h (2 Bft)
26.04.2018 05:09 7,3 C 93 % 1007,0 hPa 0,0 l/m 5,8 km/h (2 Bft) S-SW 209 0 min 0 W/m 6,2 C 7,3 C 8,0 km/h (2 Bft)
26.04.2018 05:12 7,3 C 93 % 1007,0 hPa 0,0 l/m 4,1 km/h (1 Bft) S-SW 209 0 min 0 W/m 6,2 C 7,3 C 6,4 km/h (2 Bft)
26.04.2018 05:15 7,3 C 93 % 1006,9 hPa 0,0 l/m 4,3 km/h (1 Bft) S-SW 209 0 min 0 W/m 6,2 C 7,3 C 6,4 km/h (2 Bft)
26.04.2018 05:18 7,3 C 93 % 1006,9 hPa 0,0 l/m 3,5 km/h (1 Bft) S-SW 209 0 min 0 W/m 6,2 C 7,3 C 6,4 km/h (2 Bft)
26.04.2018 05:21 7,3 C 93 % 1006,9 hPa 0,0 l/m 4,3 km/h (1 Bft) S-SW 209 0 min 0 W/m 6,2 C 7,3 C 6,4 km/h (2 Bft)
26.04.2018 05:24 7,4 C 93 % 1006,9 hPa 0,0 l/m 5,5 km/h (2 Bft) S-SW 207 0 min 0 W/m 6,3 C 7,4 C 8,0 km/h (2 Bft)
26.04.2018 05:27 7,4 C 93 % 1006,8 hPa 0,0 l/m 5,4 km/h (2 Bft) SW 222 0 min 0 W/m 6,3 C 7,4 C 8,0 km/h (2 Bft)
26.04.2018 05:30 7,4 C 93 % 1006,8 hPa 0,0 l/m 5,8 km/h (2 Bft) S-SW 205 0 min 0 W/m 6,3 C 7,4 C 9,7 km/h (2 Bft)
26.04.2018 05:33 7,4 C 93 % 1006,9 hPa 0,0 l/m 5,0 km/h (1 Bft) S-SW 204 0 min 0 W/m 6,3 C 7,4 C 9,7 km/h (2 Bft)
26.04.2018 05:36 7,5 C 93 % 1006,9 hPa 0,0 l/m 6,2 km/h (2 Bft) S-SW 209 0 min 0 W/m 6,4 C 7,5 C 9,7 km/h (2 Bft)
26.04.2018 05:39 7,6 C 93 % 1006,9 hPa 0,0 l/m 6,1 km/h (2 Bft) S-SW 209 0 min 0 W/m 6,5 C 7,6 C 9,7 km/h (2 Bft)
26.04.2018 05:42 7,6 C 93 % 1006,9 hPa 0,0 l/m 7,3 km/h (2 Bft) SW 223 0 min 0 W/m 6,5 C 6,9 C 12,9 km/h (3 Bft)
26.04.2018 05:45 7,6 C 94 % 1006,9 hPa 0,0 l/m 7,7 km/h (2 Bft) S-SW 206 0 min 0 W/m 6,7 C 6,6 C 11,3 km/h (2 Bft)
26.04.2018 05:48 7,7 C 94 % 1006,9 hPa 0,0 l/m 8,0 km/h (2 Bft) S-SW 207 0 min 0 W/m 6,8 C 6,4 C 14,5 km/h (3 Bft)
26.04.2018 05:51 7,7 C 94 % 1006,9 hPa 0,0 l/m 7,4 km/h (2 Bft) S-SW 209 0 min 0 W/m 6,8 C 6,9 C 11,3 km/h (2 Bft)
26.04.2018 05:54 7,8 C 94 % 1006,9 hPa 0,0 l/m 9,1 km/h (2 Bft) SW 225 0 min 0 W/m 6,9 C 5,8 C 14,5 km/h (3 Bft)
26.04.2018 05:57 7,8 C 94 % 1007,0 hPa 0,0 l/m 10,2 km/h (2 Bft) S 191 0 min 0 W/m 6,9 C 5,0 C 16,1 km/h (3 Bft)
26.04.2018 06:00 7,8 C 94 % 1006,9 hPa 0,0 l/m 10,6 km/h (2 Bft) SW 234 0 min 0 W/m 6,9 C 4,8 C 19,3 km/h (3 Bft)
26.04.2018 06:03 7,8 C 94 % 1006,9 hPa 0,0 l/m 8,6 km/h (2 Bft) S-SW 203 0 min 0 W/m 6,9 C 6,1 C 14,5 km/h (3 Bft)
26.04.2018 06:06 7,8 C 94 % 1006,9 hPa 0,0 l/m 6,7 km/h (2 Bft) SW 227 0 min 0 W/m 6,9 C 7,6 C 12,9 km/h (3 Bft)
26.04.2018 06:09 7,8 C 94 % 1006,8 hPa 0,0 l/m 6,7 km/h (2 Bft) SW 227 0 min 0 W/m 6,9 C 7,6 C 9,7 km/h (2 Bft)
26.04.2018 06:12 7,8 C 94 % 1006,9 hPa 0,0 l/m 9,8 km/h (2 Bft) SW 215 0 min 0 W/m 6,9 C 5,3 C 14,5 km/h (3 Bft)
26.04.2018 06:15 7,8 C 94 % 1006,8 hPa 0,0 l/m 7,7 km/h (2 Bft) SW 222 0 min 0 W/m 6,9 C 6,8 C 12,9 km/h (3 Bft)
26.04.2018 06:18 7,8 C 94 % 1006,9 hPa 0,0 l/m 8,8 km/h (2 Bft) SW 222 0 min 0 W/m 6,9 C 6,0 C 12,9 km/h (3 Bft)
26.04.2018 06:21 7,8 C 94 % 1006,9 hPa 0,0 l/m 9,2 km/h (2 Bft) SW 232 0 min 0 W/m 6,9 C 5,7 C 14,5 km/h (3 Bft)
26.04.2018 06:24 7,8 C 94 % 1006,9 hPa 0,0 l/m 8,4 km/h (2 Bft) SW 236 0 min 0 W/m 6,9 C 6,2 C 19,3 km/h (3 Bft)
26.04.2018 06:27 7,9 C 94 % 1006,9 hPa 0,0 l/m 10,8 km/h (2 Bft) S-SW 213 0 min 0 W/m 7,0 C 4,8 C 19,3 km/h (3 Bft)
26.04.2018 06:30 8,0 C 94 % 1006,9 hPa 0,0 l/m 10,1 km/h (2 Bft) SW 227 0 min 5 W/m 7,1 C 5,3 C 20,9 km/h (4 Bft)
26.04.2018 06:33 8,1 C 94 % 1006,9 hPa 0,0 l/m 11,3 km/h (2 Bft) SW 234 0 min 5 W/m 7,2 C 4,7 C 17,7 km/h (3 Bft)
26.04.2018 06:36 8,1 C 94 % 1006,9 hPa 0,0 l/m 12,6 km/h (3 Bft) W-SW 248 0 min 5 W/m 7,2 C 4,0 C 17,7 km/h (3 Bft)
26.04.2018 06:39 8,2 C 94 % 1006,9 hPa 0,0 l/m 12,0 km/h (2 Bft) SW 236 0 min 7 W/m 7,3 C 4,4 C 19,3 km/h (3 Bft)
26.04.2018 06:42 8,2 C 94 % 1007,0 hPa 0,0 l/m 10,0 km/h (2 Bft) SW 226 0 min 9 W/m 7,3 C 5,6 C 20,9 km/h (4 Bft)
26.04.2018 06:45 8,2 C 94 % 1007,0 hPa 0,0 l/m 11,6 km/h (2 Bft) SW 226 0 min 11 W/m 7,3 C 4,7 C 16,1 km/h (3 Bft)
26.04.2018 06:48 8,2 C 94 % 1007,0 hPa 0,0 l/m 11,6 km/h (2 Bft) SW 232 0 min 11 W/m 7,3 C 4,7 C 17,7 km/h (3 Bft)
26.04.2018 06:51 8,3 C 94 % 1007,0 hPa 0,0 l/m 10,6 km/h (2 Bft) SW 231 0 min 12 W/m 7,4 C 5,4 C 17,7 km/h (3 Bft)
26.04.2018 06:54 8,3 C 94 % 1007,1 hPa 0,0 l/m 10,3 km/h (2 Bft) SW 233 0 min 7 W/m 7,4 C 5,5 C 17,7 km/h (3 Bft)
26.04.2018 06:57 8,3 C 94 % 1007,1 hPa 0,0 l/m 10,2 km/h (2 Bft) W-SW 238 0 min 11 W/m 7,4 C 5,6 C 19,3 km/h (3 Bft)
26.04.2018 07:00 8,3 C 94 % 1007,1 hPa 0,0 l/m 14,1 km/h (3 Bft) W-SW 243 0 min 12 W/m 7,4 C 3,5 C 20,9 km/h (4 Bft)
26.04.2018 07:03 8,3 C 94 % 1007,2 hPa 0,0 l/m 11,0 km/h (2 Bft) W-SW 237 0 min 16 W/m 7,4 C 5,1 C 17,7 km/h (3 Bft)
26.04.2018 07:06 8,4 C 94 % 1007,2 hPa 0,0 l/m 11,2 km/h (2 Bft) W-SW 255 0 min 19 W/m 7,5 C 5,1 C 20,9 km/h (4 Bft)
26.04.2018 07:09 8,4 C 94 % 1007,2 hPa 0,0 l/m 6,6 km/h (2 Bft) W 270 0 min 14 W/m 7,5 C 8,3 C 16,1 km/h (3 Bft)
26.04.2018 07:12 8,4 C 94 % 1007,3 hPa 0,0 l/m 8,8 km/h (2 Bft) SW 231 0 min 11 W/m 7,5 C 6,6 C 19,3 km/h (3 Bft)
26.04.2018 07:15 8,4 C 94 % 1007,3 hPa 0,0 l/m 9,8 km/h (2 Bft) W-SW 238 0 min 7 W/m 7,5 C 6,0 C 16,1 km/h (3 Bft)
26.04.2018 07:18 8,4 C 94 % 1007,3 hPa 0,0 l/m 7,4 km/h (2 Bft) SW 233 0 min 12 W/m 7,5 C 7,6 C 17,7 km/h (3 Bft)
26.04.2018 07:21 8,5 C 95 % 1007,3 hPa 0,0 l/m 8,0 km/h (2 Bft) W-SW 245 0 min 19 W/m 7,7 C 7,3 C 16,1 km/h (3 Bft)
26.04.2018 07:24 8,5 C 94 % 1007,4 hPa 0,0 l/m 13,4 km/h (3 Bft) W-SW 255 0 min 14 W/m 7,6 C 4,1 C 24,1 km/h (4 Bft)
26.04.2018 07:27 8,5 C 94 % 1007,5 hPa 0,0 l/m 14,7 km/h (3 Bft) W-NW 291 0 min 12 W/m 7,6 C 3,5 C 22,5 km/h (4 Bft)
26.04.2018 07:30 8,5 C 94 % 1007,5 hPa 0,0 l/m 15,4 km/h (3 Bft) W-SW 246 0 min 30 W/m 7,6 C 3,1 C 24,1 km/h (4 Bft)
26.04.2018 07:33 8,4 C 94 % 1007,5 hPa 0,0 l/m 13,6 km/h (3 Bft) SW 235 0 min 23 W/m 7,5 C 3,9 C 24,1 km/h (4 Bft)
26.04.2018 07:36 8,3 C 94 % 1007,5 hPa 0,0 l/m 15,6 km/h (3 Bft) W-SW 257 0 min 21 W/m 7,4 C 2,8 C 30,6 km/h (5 Bft)
26.04.2018 07:39 8,3 C 94 % 1007,6 hPa 0,0 l/m 18,8 km/h (3 Bft) W 266 0 min 32 W/m 7,4 C 1,5 C 29,0 km/h (5 Bft)
26.04.2018 07:42 8,3 C 94 % 1007,6 hPa 0,0 l/m 18,2 km/h (3 Bft) W-NW 293 0 min 32 W/m 7,4 C 1,7 C 32,2 km/h (5 Bft)
26.04.2018 07:45 8,3 C 94 % 1007,6 hPa 0,0 l/m 16,8 km/h (3 Bft) W-SW 253 0 min 28 W/m 7,4 C 2,3 C 29,0 km/h (5 Bft)
26.04.2018 07:48 8,3 C 94 % 1007,6 hPa 0,0 l/m 16,7 km/h (3 Bft) W 271 0 min 32 W/m 7,4 C 2,3 C 29,0 km/h (5 Bft)
26.04.2018 07:51 8,3 C 94 % 1007,6 hPa 0,0 l/m 17,2 km/h (3 Bft) W 265 0 min 44 W/m 7,4 C 2,1 C 27,4 km/h (5 Bft)
26.04.2018 07:54 8,3 C 94 % 1007,6 hPa 0,0 l/m 13,9 km/h (3 Bft) W 273 0 min 47 W/m 7,4 C 3,6 C 20,9 km/h (4 Bft)
26.04.2018 07:57 8,4 C 94 % 1007,7 hPa 0,0 l/m 13,0 km/h (3 Bft) W 268 0 min 51 W/m 7,5 C 4,1 C 27,4 km/h (5 Bft)
26.04.2018 08:00 8,4 C 93 % 1007,8 hPa 0,0 l/m 18,3 km/h (3 Bft) W-SW 242 0 min 56 W/m 7,3 C 1,8 C 29,0 km/h (5 Bft)
26.04.2018 08:03 8,4 C 93 % 1007,7 hPa 0,0 l/m 15,5 km/h (3 Bft) SW 228 0 min 51 W/m 7,3 C 3,0 C 25,7 km/h (4 Bft)
26.04.2018 08:06 8,4 C 93 % 1007,7 hPa 0,0 l/m 12,5 km/h (2 Bft) W 273 0 min 53 W/m 7,3 C 4,4 C 25,7 km/h (4 Bft)
26.04.2018 08:09 8,4 C 93 % 1007,8 hPa 0,0 l/m 14,1 km/h (3 Bft) W 265 0 min 77 W/m 7,3 C 3,6 C 30,6 km/h (5 Bft)
26.04.2018 08:12 8,5 C 93 % 1007,8 hPa 0,0 l/m 12,6 km/h (3 Bft) W-NW 285 0 min 72 W/m 7,4 C 4,5 C 25,7 km/h (4 Bft)
26.04.2018 08:15 8,6 C 93 % 1007,9 hPa 0,0 l/m 13,1 km/h (3 Bft) W 269 0 min 77 W/m 7,5 C 4,3 C 24,1 km/h (4 Bft)
26.04.2018 08:18 8,6 C 93 % 1007,9 hPa 0,0 l/m 13,0 km/h (3 Bft) W-NW 285 0 min 97 W/m 7,5 C 4,4 C 19,3 km/h (3 Bft)
26.04.2018 08:21 8,6 C 92 % 1007,9 hPa 0,0 l/m 12,1 km/h (2 Bft) W-SW 256 0 min 120 W/m 7,4 C 4,8 C 30,6 km/h (5 Bft)
26.04.2018 08:24 8,7 C 92 % 1008,0 hPa 0,0 l/m 13,3 km/h (3 Bft) W-NW 299 0 min 123 W/m 7,5 C 4,4 C 27,4 km/h (5 Bft)
26.04.2018 08:27 8,7 C 92 % 1008,0 hPa 0,0 l/m 12,3 km/h (2 Bft) W-SW 240 0 min 120 W/m 7,5 C 4,9 C 24,1 km/h (4 Bft)
26.04.2018 08:30 8,8 C 92 % 1008,0 hPa 0,0 l/m 14,5 km/h (3 Bft) W-SW 244 0 min 111 W/m 7,6 C 3,9 C 25,7 km/h (4 Bft)
26.04.2018 08:33 8,8 C 92 % 1008,0 hPa 0,0 l/m 14,2 km/h (3 Bft) W 281 0 min 111 W/m 7,6 C 4,0 C 22,5 km/h (4 Bft)
26.04.2018 08:36 8,9 C 92 % 1008,1 hPa 0,0 l/m 11,7 km/h (2 Bft) NW 304 0 min 116 W/m 7,7 C 5,4 C 22,5 km/h (4 Bft)
26.04.2018 08:39 8,9 C 92 % 1008,1 hPa 0,0 l/m 11,2 km/h (2 Bft) W 278 0 min 118 W/m 7,7 C 5,7 C 20,9 km/h (4 Bft)
26.04.2018 08:42 8,9 C 91 % 1008,1 hPa 0,0 l/m 14,7 km/h (3 Bft) W-SW 246 0 min 116 W/m 7,5 C 3,9 C 29,0 km/h (5 Bft)
26.04.2018 08:45 8,9 C 91 % 1008,2 hPa 0,0 l/m 13,3 km/h (3 Bft) W 275 0 min 83 W/m 7,5 C 4,6 C 24,1 km/h (4 Bft)
26.04.2018 08:48 8,9 C 91 % 1008,2 hPa 0,0 l/m 14,8 km/h (3 Bft) W 263 0 min 67 W/m 7,5 C 3,9 C 29,0 km/h (5 Bft)
26.04.2018 08:51 8,9 C 91 % 1008,2 hPa 0,0 l/m 15,9 km/h (3 Bft) W 278 0 min 77 W/m 7,5 C 3,4 C 30,6 km/h (5 Bft)
26.04.2018 08:54 8,8 C 91 % 1008,2 hPa 0,0 l/m 14,5 km/h (3 Bft) W 261 0 min 91 W/m 7,4 C 3,9 C 24,1 km/h (4 Bft)
26.04.2018 08:57 8,8 C 91 % 1008,3 hPa 0,0 l/m 14,9 km/h (3 Bft) W 268 0 min 51 W/m 7,4 C 3,7 C 25,7 km/h (4 Bft)
26.04.2018 09:00 8,8 C 91 % 1008,3 hPa 0,2 l/m 12,3 km/h (2 Bft) W 263 0 min 69 W/m 7,4 C 5,0 C 27,4 km/h (5 Bft)
26.04.2018 09:03 8,7 C 91 % 1008,3 hPa 0,0 l/m 12,1 km/h (2 Bft) W-SW 258 0 min 58 W/m 7,3 C 5,0 C 20,9 km/h (4 Bft)
26.04.2018 09:06 8,7 C 92 % 1008,3 hPa 0,0 l/m 12,1 km/h (2 Bft) W 261 0 min 62 W/m 7,5 C 5,0 C 17,7 km/h (3 Bft)
26.04.2018 09:09 8,7 C 92 % 1008,3 hPa 0,0 l/m 10,3 km/h (2 Bft) W-SW 257 0 min 125 W/m 7,5 C 6,0 C 22,5 km/h (4 Bft)
26.04.2018 09:12 8,7 C 92 % 1008,4 hPa 0,0 l/m 13,4 km/h (3 Bft) W 270 0 min 137 W/m 7,5 C 4,3 C 22,5 km/h (4 Bft)
26.04.2018 09:15 8,7 C 92 % 1008,4 hPa 0,0 l/m 13,8 km/h (3 Bft) W 265 0 min 123 W/m 7,5 C 4,1 C 25,7 km/h (4 Bft)
26.04.2018 09:18 8,7 C 92 % 1008,4 hPa 0,0 l/m 10,5 km/h (2 Bft) W-SW 246 0 min 171 W/m 7,5 C 5,9 C 19,3 km/h (3 Bft)
26.04.2018 09:21 8,9 C 92 % 1008,4 hPa 0,0 l/m 13,2 km/h (3 Bft) SW 232 3 min 290 W/m 7,7 C 4,6 C 24,1 km/h (4 Bft)
26.04.2018 09:24 9,0 C 92 % 1008,5 hPa 0,0 l/m 12,1 km/h (2 Bft) W 272 3 min 376 W/m 7,8 C 5,3 C 24,1 km/h (4 Bft)
26.04.2018 09:27 9,2 C 92 % 1008,5 hPa 0,0 l/m 11,5 km/h (2 Bft) W-SW 248 3 min 316 W/m 8,0 C 5,9 C 20,9 km/h (4 Bft)
26.04.2018 09:30 9,2 C 92 % 1008,5 hPa 0,0 l/m 15,5 km/h (3 Bft) W-NW 286 0 min 260 W/m 8,0 C 4,0 C 24,1 km/h (4 Bft)
26.04.2018 09:33 9,2 C 91 % 1008,5 hPa 0,0 l/m 15,6 km/h (3 Bft) W 273 0 min 123 W/m 7,8 C 3,9 C 24,1 km/h (4 Bft)
26.04.2018 09:36 9,2 C 91 % 1008,6 hPa 0,0 l/m 13,9 km/h (3 Bft) W 265 0 min 160 W/m 7,8 C 4,7 C 25,7 km/h (4 Bft)
26.04.2018 09:39 9,2 C 91 % 1008,6 hPa 0,0 l/m 16,3 km/h (3 Bft) W-NW 292 0 min 144 W/m 7,8 C 3,6 C 24,1 km/h (4 Bft)
26.04.2018 09:42 9,1 C 91 % 1008,5 hPa 0,0 l/m 11,9 km/h (2 Bft) SW 221 0 min 88 W/m 7,7 C 5,5 C 20,9 km/h (4 Bft)
26.04.2018 09:45 9,1 C 91 % 1008,5 hPa 0,0 l/m 12,0 km/h (2 Bft) W-NW 294 0 min 139 W/m 7,7 C 5,5 C 19,3 km/h (3 Bft)
26.04.2018 09:48 9,2 C 91 % 1008,5 hPa 0,0 l/m 11,5 km/h (2 Bft) W-SW 254 3 min 357 W/m 7,8 C 5,9 C 20,9 km/h (4 Bft)
26.04.2018 09:51 9,5 C 91 % 1008,6 hPa 0,0 l/m 13,6 km/h (3 Bft) W-NW 283 3 min 374 W/m 8,1 C 5,2 C 25,7 km/h (4 Bft)
26.04.2018 09:54 9,7 C 91 % 1008,6 hPa 0,0 l/m 13,2 km/h (3 Bft) W 276 3 min 390 W/m 8,3 C 5,6 C 24,1 km/h (4 Bft)
26.04.2018 09:57 9,8 C 90 % 1008,8 hPa 0,0 l/m 15,9 km/h (3 Bft) SW 223 0 min 183 W/m 8,2 C 4,5 C 30,6 km/h (5 Bft)
26.04.2018 10:00 9,7 C 89 % 1008,8 hPa 0,0 l/m 19,0 km/h (3 Bft) SW 232 3 min 316 W/m 8,0 C 3,2 C 37,0 km/h (5 Bft)
26.04.2018 10:03 9,7 C 89 % 1008,8 hPa 0,0 l/m 16,9 km/h (3 Bft) W 270 0 min 209 W/m 8,0 C 4,0 C 25,7 km/h (4 Bft)
26.04.2018 10:06 9,6 C 89 % 1008,8 hPa 0,0 l/m 20,1 km/h (4 Bft) W 268 0 min 118 W/m 7,9 C 2,7 C 33,8 km/h (5 Bft)
26.04.2018 10:09 9,6 C 89 % 1008,8 hPa 0,0 l/m 14,0 km/h (3 Bft) W-SW 240 0 min 74 W/m 7,9 C 5,1 C 25,7 km/h (4 Bft)
26.04.2018 10:12 9,5 C 89 % 1008,9 hPa 0,0 l/m 12,8 km/h (3 Bft) W 272 0 min 70 W/m 7,8 C 5,5 C 22,5 km/h (4 Bft)
26.04.2018 10:15 9,5 C 90 % 1008,8 hPa 0,0 l/m 9,1 km/h (2 Bft) W 270 0 min 86 W/m 7,9 C 7,6 C 17,7 km/h (3 Bft)
26.04.2018 10:18 9,4 C 90 % 1008,9 hPa 0,0 l/m 12,7 km/h (3 Bft) W-SW 238 0 min 97 W/m 7,8 C 5,5 C 24,1 km/h (4 Bft)
26.04.2018 10:21 9,4 C 90 % 1008,9 hPa 0,0 l/m 13,4 km/h (3 Bft) S 190 0 min 130 W/m 7,8 C 5,1 C 24,1 km/h (4 Bft)
26.04.2018 10:24 9,3 C 90 % 1008,9 hPa 0,0 l/m 13,6 km/h (3 Bft) W-SW 249 0 min 195 W/m 7,7 C 4,9 C 20,9 km/h (4 Bft)
26.04.2018 10:27 9,4 C 90 % 1008,9 hPa 0,0 l/m 12,0 km/h (2 Bft) SW 236 0 min 269 W/m 7,8 C 5,8 C 25,7 km/h (4 Bft)
26.04.2018 10:30 9,6 C 90 % 1008,9 hPa 0,0 l/m 15,7 km/h (3 Bft) W 259 0 min 246 W/m 8,0 C 4,4 C 30,6 km/h (5 Bft)
26.04.2018 10:33 9,6 C 89 % 1008,9 hPa 0,0 l/m 18,4 km/h (3 Bft) W-NW 290 0 min 250 W/m 7,9 C 3,3 C 25,7 km/h (4 Bft)
26.04.2018 10:36 9,6 C 88 % 1009,0 hPa 0,0 l/m 15,3 km/h (3 Bft) SW 227 0 min 302 W/m 7,7 C 4,5 C 22,5 km/h (4 Bft)
26.04.2018 10:39 9,8 C 88 % 1009,1 hPa 0,0 l/m 16,8 km/h (3 Bft) SW 231 3 min 585 W/m 7,9 C 4,2 C 24,1 km/h (4 Bft)
26.04.2018 10:42 10,1 C 87 % 1009,1 hPa 0,0 l/m 18,5 km/h (3 Bft) W-SW 252 3 min 628 W/m 8,0 C 3,9 C 32,2 km/h (5 Bft)
26.04.2018 10:45 10,2 C 86 % 1009,2 hPa 0,0 l/m 18,4 km/h (3 Bft) SW 234 3 min 663 W/m 8,0 C 4,1 C 30,6 km/h (5 Bft)
26.04.2018 10:48 10,2 C 86 % 1009,2 hPa 0,0 l/m 17,7 km/h (3 Bft) W-SW 243 3 min 663 W/m 8,0 C 4,3 C 30,6 km/h (5 Bft)
26.04.2018 10:51 10,2 C 85 % 1009,2 hPa 0,0 l/m 20,3 km/h (4 Bft) W 271 3 min 663 W/m 7,8 C 3,4 C 33,8 km/h (5 Bft)
26.04.2018 10:54 10,2 C 85 % 1009,2 hPa 0,0 l/m 19,6 km/h (3 Bft) SW 229 3 min 497 W/m 7,8 C 3,7 C 30,6 km/h (5 Bft)
26.04.2018 10:57 10,2 C 85 % 1009,3 hPa 0,0 l/m 19,9 km/h (4 Bft) SW 235 3 min 584 W/m 7,8 C 3,6 C 41,8 km/h (6 Bft)
26.04.2018 11:00 10,3 C 85 % 1009,3 hPa 0,0 l/m 19,1 km/h (3 Bft) SW 235 3 min 591 W/m 7,9 C 4,0 C 35,4 km/h (5 Bft)
26.04.2018 11:03 10,4 C 85 % 1009,4 hPa 0,0 l/m 17,3 km/h (3 Bft) W 279 3 min 631 W/m 8,0 C 4,7 C 27,4 km/h (5 Bft)
26.04.2018 11:06 10,6 C 84 % 1009,4 hPa 0,0 l/m 20,8 km/h (4 Bft) W 268 3 min 652 W/m 8,0 C 3,8 C 37,0 km/h (5 Bft)
26.04.2018 11:09 10,7 C 84 % 1009,4 hPa 0,0 l/m 18,0 km/h (3 Bft) SW 229 3 min 715 W/m 8,1 C 4,9 C 25,7 km/h (4 Bft)
26.04.2018 11:12 10,7 C 83 % 1009,4 hPa 0,0 l/m 17,0 km/h (3 Bft) SW 219 3 min 657 W/m 7,9 C 5,2 C 32,2 km/h (5 Bft)
26.04.2018 11:15 10,9 C 85 % 1009,5 hPa 0,0 l/m 16,3 km/h (3 Bft) W 279 3 min 684 W/m 8,5 C 5,7 C 27,4 km/h (5 Bft)
26.04.2018 11:18 10,9 C 83 % 1009,5 hPa 0,0 l/m 20,4 km/h (4 Bft) SW 227 3 min 652 W/m 8,1 C 4,3 C 30,6 km/h (5 Bft)
26.04.2018 11:21 11,1 C 84 % 1009,5 hPa 0,0 l/m 15,9 km/h (3 Bft) SW 229 3 min 659 W/m 8,5 C 6,1 C 30,6 km/h (5 Bft)
26.04.2018 11:24 11,2 C 83 % 1009,5 hPa 0,0 l/m 14,9 km/h (3 Bft) SW 231 3 min 680 W/m 8,4 C 6,6 C 27,4 km/h (5 Bft)
26.04.2018 11:27 11,1 C 82 % 1009,4 hPa 0,0 l/m 19,4 km/h (3 Bft) W-SW 240 3 min 628 W/m 8,1 C 4,9 C 30,6 km/h (5 Bft)
26.04.2018 11:30 11,3 C 84 % 1009,5 hPa 0,0 l/m 16,0 km/h (3 Bft) W 262 3 min 679 W/m 8,7 C 6,3 C 25,7 km/h (4 Bft)
26.04.2018 11:33 11,3 C 81 % 1009,6 hPa 0,0 l/m 20,5 km/h (4 Bft) W-NW 292 3 min 661 W/m 8,2 C 4,8 C 30,6 km/h (5 Bft)
26.04.2018 11:36 11,2 C 81 % 1009,5 hPa 0,0 l/m 19,8 km/h (3 Bft) W 273 3 min 701 W/m 8,1 C 4,9 C 32,2 km/h (5 Bft)
26.04.2018 11:39 11,3 C 82 % 1009,6 hPa 0,0 l/m 18,0 km/h (3 Bft) SW 235 3 min 715 W/m 8,3 C 5,6 C 29,0 km/h (5 Bft)
26.04.2018 11:42 11,3 C 81 % 1009,6 hPa 0,0 l/m 17,2 km/h (3 Bft) W 263 3 min 599 W/m 8,2 C 5,9 C 27,4 km/h (5 Bft)
26.04.2018 11:45 11,2 C 81 % 1009,7 hPa 0,0 l/m 18,4 km/h (3 Bft) W-SW 252 3 min 701 W/m 8,1 C 5,4 C 30,6 km/h (5 Bft)
26.04.2018 11:48 11,2 C 81 % 1009,7 hPa 0,0 l/m 19,2 km/h (3 Bft) W 259 3 min 707 W/m 8,1 C 5,1 C 30,6 km/h (5 Bft)
26.04.2018 11:51 11,1 C 80 % 1009,7 hPa 0,0 l/m 20,5 km/h (4 Bft) W 261 3 min 629 W/m 7,8 C 4,6 C 35,4 km/h (5 Bft)
26.04.2018 11:54 11,3 C 81 % 1009,8 hPa 0,0 l/m 18,7 km/h (3 Bft) W-SW 258 3 min 668 W/m 8,2 C 5,4 C 33,8 km/h (5 Bft)
26.04.2018 11:57 11,2 C 79 % 1009,8 hPa 0,0 l/m 20,8 km/h (4 Bft) W-SW 244 3 min 659 W/m 7,7 C 4,6 C 37,0 km/h (5 Bft)
26.04.2018 12:00 11,2 C 81 % 1009,8 hPa 0,0 l/m 19,1 km/h (3 Bft) NW 306 3 min 638 W/m 8,1 C 5,1 C 33,8 km/h (5 Bft)
26.04.2018 12:03 11,2 C 81 % 1009,8 hPa 0,0 l/m 16,1 km/h (3 Bft) W 263 3 min 626 W/m 8,1 C 6,2 C 37,0 km/h (5 Bft)
26.04.2018 12:06 11,4 C 82 % 1009,8 hPa 0,0 l/m 16,3 km/h (3 Bft) W-NW 289 3 min 608 W/m 8,4 C 6,3 C 29,0 km/h (5 Bft)
26.04.2018 12:09 11,5 C 79 % 1009,9 hPa 0,0 l/m 21,7 km/h (4 Bft) W 278 3 min 589 W/m 8,0 C 4,7 C 37,0 km/h (5 Bft)
26.04.2018 12:12 11,4 C 79 % 1009,9 hPa 0,0 l/m 21,4 km/h (4 Bft) W 268 3 min 578 W/m 7,9 C 4,7 C 32,2 km/h (5 Bft)
26.04.2018 12:15 11,4 C 79 % 1010,0 hPa 0,0 l/m 17,3 km/h (3 Bft) W 277 3 min 571 W/m 7,9 C 6,0 C 32,2 km/h (5 Bft)
26.04.2018 12:18 11,4 C 78 % 1010,0 hPa 0,0 l/m 20,2 km/h (4 Bft) NW 314 3 min 570 W/m 7,7 C 5,0 C 33,8 km/h (5 Bft)
26.04.2018 12:21 11,3 C 78 % 1010,0 hPa 0,0 l/m 18,7 km/h (3 Bft) W 263 3 min 577 W/m 7,6 C 5,4 C 30,6 km/h (5 Bft)
26.04.2018 12:24 11,3 C 78 % 1009,9 hPa 0,0 l/m 22,2 km/h (4 Bft) W 275 3 min 582 W/m 7,6 C 4,3 C 35,4 km/h (5 Bft)
26.04.2018 12:27 11,5 C 79 % 1009,9 hPa 0,0 l/m 14,9 km/h (3 Bft) W-SW 255 3 min 601 W/m 8,0 C 7,0 C 35,4 km/h (5 Bft)
26.04.2018 12:30 11,4 C 78 % 1010,0 hPa 0,0 l/m 17,5 km/h (3 Bft) W-SW 242 3 min 617 W/m 7,7 C 5,9 C 27,4 km/h (5 Bft)
26.04.2018 12:33 11,3 C 78 % 1010,0 hPa 0,0 l/m 19,6 km/h (3 Bft) W-SW 254 3 min 643 W/m 7,6 C 5,1 C 33,8 km/h (5 Bft)
26.04.2018 12:36 11,4 C 78 % 1010,2 hPa 0,0 l/m 21,1 km/h (4 Bft) W 260 3 min 677 W/m 7,7 C 4,8 C 35,4 km/h (5 Bft)
26.04.2018 12:39 11,4 C 77 % 1010,1 hPa 0,0 l/m 21,5 km/h (4 Bft) W-SW 257 3 min 684 W/m 7,5 C 4,7 C 40,2 km/h (6 Bft)
26.04.2018 12:42 11,3 C 78 % 1010,1 hPa 0,0 l/m 20,8 km/h (4 Bft) W-NW 292 3 min 708 W/m 7,6 C 4,7 C 32,2 km/h (5 Bft)
26.04.2018 12:45 11,4 C 79 % 1010,1 hPa 0,0 l/m 17,3 km/h (3 Bft) W 263 3 min 733 W/m 7,9 C 6,0 C 29,0 km/h (5 Bft)
26.04.2018 12:48 11,5 C 79 % 1010,1 hPa 0,0 l/m 18,8 km/h (3 Bft) SW 226 3 min 738 W/m 8,0 C 5,6 C 30,6 km/h (5 Bft)
26.04.2018 12:51 11,7 C 79 % 1010,2 hPa 0,0 l/m 17,1 km/h (3 Bft) W 261 3 min 751 W/m 8,2 C 6,4 C 37,0 km/h (5 Bft)
26.04.2018 12:54 11,9 C 80 % 1010,1 hPa 0,0 l/m 15,1 km/h (3 Bft) W-NW 300 3 min 758 W/m 8,6 C 7,4 C 24,1 km/h (4 Bft)
26.04.2018 12:57 11,8 C 77 % 1010,1 hPa 0,0 l/m 20,2 km/h (4 Bft) SW 234 3 min 763 W/m 7,9 C 5,6 C 33,8 km/h (5 Bft)
26.04.2018 13:00 11,7 C 78 % 1010,1 hPa 0,0 l/m 13,6 km/h (3 Bft) W-SW 238 3 min 779 W/m 8,0 C 7,8 C 25,7 km/h (4 Bft)
26.04.2018 13:03 11,7 C 79 % 1010,0 hPa 0,0 l/m 16,6 km/h (3 Bft) W-SW 250 3 min 758 W/m 8,2 C 6,6 C 24,1 km/h (4 Bft)
26.04.2018 13:06 11,6 C 77 % 1010,1 hPa 0,0 l/m 21,7 km/h (4 Bft) W 271 3 min 761 W/m 7,7 C 4,9 C 37,0 km/h (5 Bft)
26.04.2018 13:09 11,7 C 77 % 1010,2 hPa 0,0 l/m 17,4 km/h (3 Bft) W 281 3 min 765 W/m 7,8 C 6,3 C 29,0 km/h (5 Bft)
26.04.2018 13:12 11,5 C 77 % 1010,2 hPa 0,0 l/m 17,8 km/h (3 Bft) W-SW 250 3 min 766 W/m 7,6 C 5,9 C 30,6 km/h (5 Bft)
26.04.2018 13:15 11,4 C 78 % 1010,2 hPa 0,0 l/m 21,4 km/h (4 Bft) W 263 3 min 766 W/m 7,7 C 4,7 C 33,8 km/h (5 Bft)
26.04.2018 13:18 11,4 C 78 % 1010,2 hPa 0,0 l/m 19,1 km/h (3 Bft) W-SW 244 3 min 809 W/m 7,7 C 5,4 C 38,6 km/h (6 Bft)
26.04.2018 13:21 11,6 C 79 % 1010,3 hPa 0,0 l/m 19,4 km/h (3 Bft) W-SW 245 3 min 765 W/m 8,1 C 5,5 C 33,8 km/h (5 Bft)
26.04.2018 13:24 11,5 C 78 % 1010,2 hPa 0,0 l/m 21,3 km/h (4 Bft) W-NW 300 3 min 768 W/m 7,8 C 4,8 C 33,8 km/h (5 Bft)
26.04.2018 13:27 11,6 C 79 % 1010,4 hPa 0,0 l/m 20,9 km/h (4 Bft) W-SW 241 3 min 765 W/m 8,1 C 5,1 C 30,6 km/h (5 Bft)
26.04.2018 13:30 11,6 C 78 % 1010,4 hPa 0,0 l/m 18,2 km/h (3 Bft) W 261 3 min 768 W/m 7,9 C 5,9 C 32,2 km/h (5 Bft)
26.04.2018 13:33 11,6 C 77 % 1010,4 hPa 0,0 l/m 19,8 km/h (3 Bft) W-SW 250 3 min 766 W/m 7,7 C 5,4 C 29,0 km/h (5 Bft)
26.04.2018 13:36 11,7 C 77 % 1010,3 hPa 0,0 l/m 18,3 km/h (3 Bft) W-SW 245 3 min 782 W/m 7,8 C 6,0 C 32,2 km/h (5 Bft)
26.04.2018 13:39 11,6 C 77 % 1010,4 hPa 0,0 l/m 22,1 km/h (4 Bft) W-SW 242 3 min 789 W/m 7,7 C 4,7 C 41,8 km/h (6 Bft)
26.04.2018 13:42 11,6 C 77 % 1010,4 hPa 0,0 l/m 18,9 km/h (3 Bft) W-SW 244 3 min 768 W/m 7,7 C 5,7 C 33,8 km/h (5 Bft)
26.04.2018 13:45 11,6 C 77 % 1010,4 hPa 0,0 l/m 21,0 km/h (4 Bft) SW 229 3 min 765 W/m 7,7 C 5,1 C 30,6 km/h (5 Bft)
26.04.2018 13:48 11,6 C 77 % 1010,5 hPa 0,0 l/m 21,5 km/h (4 Bft) W 281 3 min 758 W/m 7,7 C 4,9 C 33,8 km/h (5 Bft)
26.04.2018 13:51 11,5 C 77 % 1010,5 hPa 0,0 l/m 18,7 km/h (3 Bft) W-SW 240 3 min 761 W/m 7,6 C 5,6 C 33,8 km/h (5 Bft)
26.04.2018 13:54 11,4 C 78 % 1010,5 hPa 0,0 l/m 22,4 km/h (4 Bft) W-SW 244 3 min 679 W/m 7,7 C 4,4 C 33,8 km/h (5 Bft)
26.04.2018 13:57 11,7 C 78 % 1010,6 hPa 0,0 l/m 18,0 km/h (3 Bft) SW 236 3 min 763 W/m 8,0 C 6,1 C 35,4 km/h (5 Bft)
26.04.2018 14:00 11,8 C 76 % 1010,6 hPa 0,0 l/m 17,5 km/h (3 Bft) W-SW 242 3 min 765 W/m 7,7 C 6,4 C 37,0 km/h (5 Bft)
26.04.2018 14:03 11,6 C 75 % 1010,6 hPa 0,0 l/m 22,3 km/h (4 Bft) W-NW 302 3 min 766 W/m 7,3 C 4,7 C 38,6 km/h (6 Bft)
26.04.2018 14:06 11,6 C 77 % 1010,6 hPa 0,0 l/m 20,3 km/h (4 Bft) W-NW 283 3 min 751 W/m 7,7 C 5,3 C 29,0 km/h (5 Bft)
26.04.2018 14:09 11,6 C 76 % 1010,6 hPa 0,0 l/m 22,5 km/h (4 Bft) W 261 3 min 777 W/m 7,5 C 4,6 C 32,2 km/h (5 Bft)
26.04.2018 14:12 11,6 C 77 % 1010,7 hPa 0,0 l/m 16,1 km/h (3 Bft) SW 227 3 min 744 W/m 7,7 C 6,7 C 25,7 km/h (4 Bft)
26.04.2018 14:15 11,6 C 77 % 1010,7 hPa 0,0 l/m 19,4 km/h (3 Bft) W-NW 284 3 min 731 W/m 7,7 C 5,5 C 33,8 km/h (5 Bft)
26.04.2018 14:18 11,8 C 78 % 1010,7 hPa 0,0 l/m 18,7 km/h (3 Bft) W-SW 255 3 min 751 W/m 8,1 C 6,0 C 37,0 km/h (5 Bft)
26.04.2018 14:21 11,6 C 77 % 1010,7 hPa 0,0 l/m 17,9 km/h (3 Bft) W-SW 240 3 min 770 W/m 7,7 C 6,0 C 27,4 km/h (5 Bft)
26.04.2018 14:24 11,4 C 77 % 1010,8 hPa 0,0 l/m 18,2 km/h (3 Bft) W 266 3 min 752 W/m 7,5 C 5,7 C 35,4 km/h (5 Bft)
26.04.2018 14:27 11,6 C 77 % 1010,8 hPa 0,0 l/m 18,8 km/h (3 Bft) W-NW 301 3 min 742 W/m 7,7 C 5,7 C 30,6 km/h (5 Bft)
26.04.2018 14:30 11,8 C 78 % 1010,9 hPa 0,0 l/m 19,9 km/h (4 Bft) NW 306 3 min 812 W/m 8,1 C 5,6 C 32,2 km/h (5 Bft)
26.04.2018 14:33 11,7 C 78 % 1010,9 hPa 0,0 l/m 21,2 km/h (4 Bft) W 270 3 min 751 W/m 8,0 C 5,1 C 37,0 km/h (5 Bft)
26.04.2018 14:36 11,7 C 78 % 1011,1 hPa 0,0 l/m 15,8 km/h (3 Bft) W 262 3 min 751 W/m 8,0 C 6,9 C 25,7 km/h (4 Bft)
26.04.2018 14:39 11,8 C 76 % 1011,1 hPa 0,0 l/m 18,4 km/h (3 Bft) SW 236 3 min 912 W/m 7,7 C 6,1 C 32,2 km/h (5 Bft)
26.04.2018 14:42 11,8 C 76 % 1011,0 hPa 0,0 l/m 20,0 km/h (4 Bft) W-SW 243 3 min 986 W/m 7,7 C 5,6 C 41,8 km/h (6 Bft)
26.04.2018 14:45 12,1 C 77 % 1011,0 hPa 0,0 l/m 15,8 km/h (3 Bft) W 270 3 min 981 W/m 8,2 C 7,4 C 30,6 km/h (5 Bft)
26.04.2018 14:48 12,2 C 76 % 1011,1 hPa 0,0 l/m 15,8 km/h (3 Bft) SW 223 0 min 229 W/m 8,1 C 7,5 C 30,6 km/h (5 Bft)
26.04.2018 14:51 11,8 C 75 % 1011,1 hPa 0,0 l/m 19,7 km/h (3 Bft) W 279 0 min 137 W/m 7,5 C 5,7 C 37,0 km/h (5 Bft)
26.04.2018 14:54 11,5 C 77 % 1011,1 hPa 0,0 l/m 22,3 km/h (4 Bft) W 259 0 min 137 W/m 7,6 C 4,6 C 32,2 km/h (5 Bft)
26.04.2018 14:57 11,4 C 77 % 1011,1 hPa 0,0 l/m 20,1 km/h (4 Bft) SW 234 0 min 137 W/m 7,5 C 5,1 C 35,4 km/h (5 Bft)
26.04.2018 15:00 11,2 C 77 % 1011,2 hPa 0,0 l/m 20,9 km/h (4 Bft) W 259 0 min 178 W/m 7,3 C 4,6 C 33,8 km/h (5 Bft)
26.04.2018 15:03 11,2 C 77 % 1011,2 hPa 0,0 l/m 23,7 km/h (4 Bft) W 265 3 min 793 W/m 7,3 C 3,8 C 38,6 km/h (6 Bft)
26.04.2018 15:06 11,2 C 78 % 1011,2 hPa 0,0 l/m 20,5 km/h (4 Bft) W 277 0 min 308 W/m 7,5 C 4,7 C 40,2 km/h (6 Bft)
26.04.2018 15:09 11,1 C 77 % 1011,1 hPa 0,0 l/m 22,3 km/h (4 Bft) W 266 0 min 308 W/m 7,2 C 4,0 C 41,8 km/h (6 Bft)
26.04.2018 15:12 11,1 C 77 % 1011,2 hPa 0,0 l/m 20,1 km/h (4 Bft) W 259 3 min 751 W/m 7,2 C 4,7 C 32,2 km/h (5 Bft)
26.04.2018 15:15 11,4 C 78 % 1011,3 hPa 0,0 l/m 19,5 km/h (3 Bft) SW 236 3 min 751 W/m 7,7 C 5,3 C 35,4 km/h (5 Bft)
26.04.2018 15:18 11,4 C 76 % 1011,2 hPa 0,0 l/m 20,4 km/h (4 Bft) W-SW 252 3 min 751 W/m 7,3 C 5,0 C 32,2 km/h (5 Bft)
26.04.2018 15:21 11,6 C 76 % 1011,3 hPa 0,0 l/m 19,4 km/h (3 Bft) W 263 3 min 698 W/m 7,5 C 5,5 C 29,0 km/h (5 Bft)
26.04.2018 15:24 11,8 C 77 % 1011,4 hPa 0,0 l/m 18,1 km/h (3 Bft) W-NW 290 3 min 722 W/m 7,9 C 6,2 C 45,1 km/h (6 Bft)
26.04.2018 15:27 11,8 C 74 % 1011,3 hPa 0,0 l/m 22,0 km/h (4 Bft) W-NW 283 3 min 719 W/m 7,3 C 5,0 C 37,0 km/h (5 Bft)
26.04.2018 15:30 11,6 C 75 % 1011,4 hPa 0,0 l/m 22,8 km/h (4 Bft) W-SW 241 3 min 756 W/m 7,3 C 4,6 C 37,0 km/h (5 Bft)
26.04.2018 15:33 11,3 C 77 % 1011,4 hPa 0,0 l/m 19,7 km/h (3 Bft) W-SW 240 3 min 756 W/m 7,4 C 5,1 C 30,6 km/h (5 Bft)
26.04.2018 15:36 11,3 C 77 % 1011,4 hPa 0,0 l/m 20,1 km/h (4 Bft) W-NW 287 0 min 195 W/m 7,4 C 4,9 C 33,8 km/h (5 Bft)
26.04.2018 15:39 11,4 C 78 % 1011,4 hPa 0,0 l/m 17,5 km/h (3 Bft) W 279 3 min 737 W/m 7,7 C 5,9 C 38,6 km/h (6 Bft)
26.04.2018 15:42 11,5 C 78 % 1011,5 hPa 0,0 l/m 16,8 km/h (3 Bft) W 278 3 min 737 W/m 7,8 C 6,3 C 25,7 km/h (4 Bft)
26.04.2018 15:45 11,5 C 77 % 1011,5 hPa 0,0 l/m 16,4 km/h (3 Bft) W 271 3 min 728 W/m 7,6 C 6,4 C 33,8 km/h (5 Bft)
26.04.2018 15:48 11,6 C 77 % 1011,4 hPa 0,0 l/m 16,9 km/h (3 Bft) W 262 3 min 700 W/m 7,7 C 6,4 C 27,4 km/h (5 Bft)
26.04.2018 15:51 11,7 C 76 % 1011,4 hPa 0,0 l/m 15,6 km/h (3 Bft) W-NW 295 3 min 708 W/m 7,6 C 7,0 C 32,2 km/h (5 Bft)
26.04.2018 15:54 11,5 C 77 % 1011,4 hPa 0,0 l/m 18,2 km/h (3 Bft) W-SW 256 0 min 221 W/m 7,6 C 5,8 C 27,4 km/h (5 Bft)
26.04.2018 15:57 11,4 C 78 % 1011,4 hPa 0,0 l/m 15,3 km/h (3 Bft) W 259 0 min 221 W/m 7,7 C 6,7 C 25,7 km/h (4 Bft)
26.04.2018 16:00 11,5 C 78 % 1011,5 hPa 0,0 l/m 18,7 km/h (3 Bft) SW 234 3 min 373 W/m 7,8 C 5,6 C 32,2 km/h (5 Bft)
26.04.2018 16:03 11,3 C 76 % 1011,5 hPa 0,0 l/m 18,9 km/h (3 Bft) W-SW 256 3 min 675 W/m 7,2 C 5,3 C 33,8 km/h (5 Bft)
26.04.2018 16:06 11,2 C 78 % 1011,5 hPa 0,0 l/m 21,8 km/h (4 Bft) W 259 3 min 664 W/m 7,5 C 4,3 C 32,2 km/h (5 Bft)
26.04.2018 16:09 11,1 C 78 % 1011,3 hPa 0,0 l/m 21,8 km/h (4 Bft) SW 236 3 min 664 W/m 7,4 C 4,2 C 33,8 km/h (5 Bft)
26.04.2018 16:12 11,1 C 78 % 1011,5 hPa 0,0 l/m 19,3 km/h (3 Bft) W-SW 248 3 min 656 W/m 7,4 C 4,9 C 32,2 km/h (5 Bft)
26.04.2018 16:15 11,1 C 77 % 1011,5 hPa 0,0 l/m 22,9 km/h (4 Bft) W-SW 252 0 min 248 W/m 7,2 C 3,9 C 40,2 km/h (6 Bft)
26.04.2018 16:18 11,1 C 78 % 1011,5 hPa 0,0 l/m 19,0 km/h (3 Bft) W 275 3 min 624 W/m 7,4 C 5,0 C 38,6 km/h (6 Bft)
26.04.2018 16:21 11,2 C 78 % 1011,5 hPa 0,0 l/m 20,7 km/h (4 Bft) W 274 3 min 640 W/m 7,5 C 4,6 C 33,8 km/h (5 Bft)
26.04.2018 16:24 11,2 C 78 % 1011,5 hPa 0,0 l/m 19,1 km/h (3 Bft) W-SW 244 3 min 640 W/m 7,5 C 5,1 C 32,2 km/h (5 Bft)
26.04.2018 16:27 11,1 C 77 % 1011,5 hPa 0,0 l/m 20,6 km/h (4 Bft) W-NW 289 0 min 265 W/m 7,2 C 4,5 C 41,8 km/h (6 Bft)
26.04.2018 16:30 11,1 C 78 % 1011,5 hPa 0,0 l/m 22,2 km/h (4 Bft) W 269 0 min 265 W/m 7,4 C 4,1 C 43,5 km/h (6 Bft)
26.04.2018 16:33 11,1 C 79 % 1011,5 hPa 0,0 l/m 18,5 km/h (3 Bft) W-NW 295 0 min 229 W/m 7,6 C 5,2 C 40,2 km/h (6 Bft)
26.04.2018 16:36 11,2 C 78 % 1011,4 hPa 0,0 l/m 21,9 km/h (4 Bft) W 264 0 min 229 W/m 7,5 C 4,3 C 41,8 km/h (6 Bft)
26.04.2018 16:39 11,1 C 78 % 1011,5 hPa 0,0 l/m 20,0 km/h (4 Bft) W 271 0 min 229 W/m 7,4 C 4,7 C 35,4 km/h (5 Bft)
26.04.2018 16:42 11,0 C 78 % 1011,5 hPa 0,0 l/m 22,6 km/h (4 Bft) W-SW 247 0 min 302 W/m 7,3 C 3,8 C 33,8 km/h (5 Bft)
26.04.2018 16:45 10,9 C 79 % 1011,5 hPa 0,0 l/m 20,7 km/h (4 Bft) W-NW 286 3 min 302 W/m 7,4 C 4,2 C 37,0 km/h (5 Bft)
26.04.2018 16:48 11,0 C 79 % 1011,6 hPa 0,0 l/m 17,7 km/h (3 Bft) W 275 0 min 243 W/m 7,5 C 5,3 C 27,4 km/h (5 Bft)
26.04.2018 16:51 11,1 C 79 % 1011,6 hPa 0,0 l/m 16,7 km/h (3 Bft) W 280 0 min 216 W/m 7,6 C 5,8 C 32,2 km/h (5 Bft)
26.04.2018 16:54 11,2 C 78 % 1011,6 hPa 0,0 l/m 17,9 km/h (3 Bft) W-NW 282 0 min 216 W/m 7,5 C 5,5 C 33,8 km/h (5 Bft)
26.04.2018 16:57 11,2 C 77 % 1011,5 hPa 0,0 l/m 20,9 km/h (4 Bft) W 265 3 min 510 W/m 7,3 C 4,6 C 33,8 km/h (5 Bft)
26.04.2018 17:00 11,1 C 77 % 1011,6 hPa 0,0 l/m 20,1 km/h (4 Bft) W-SW 250 3 min 520 W/m 7,2 C 4,7 C 33,8 km/h (5 Bft)
26.04.2018 17:03 11,2 C 77 % 1011,6 hPa 0,0 l/m 16,6 km/h (3 Bft) W 279 3 min 520 W/m 7,3 C 6,0 C 30,6 km/h (5 Bft)
26.04.2018 17:06 11,0 C 77 % 1011,6 hPa 0,0 l/m 22,0 km/h (4 Bft) W-NW 288 0 min 186 W/m 7,1 C 4,0 C 37,0 km/h (5 Bft)
26.04.2018 17:09 10,9 C 78 % 1011,6 hPa 0,0 l/m 17,4 km/h (3 Bft) W-NW 289 3 min 566 W/m 7,2 C 5,3 C 30,6 km/h (5 Bft)
26.04.2018 17:12 10,8 C 78 % 1011,7 hPa 0,0 l/m 20,5 km/h (4 Bft) W-SW 253 0 min 218 W/m 7,1 C 4,2 C 33,8 km/h (5 Bft)
26.04.2018 17:15 10,8 C 78 % 1011,6 hPa 0,0 l/m 18,4 km/h (3 Bft) W-NW 289 3 min 496 W/m 7,1 C 4,8 C 32,2 km/h (5 Bft)
26.04.2018 17:18 10,9 C 78 % 1011,6 hPa 0,0 l/m 20,6 km/h (4 Bft) W 270 3 min 462 W/m 7,2 C 4,3 C 33,8 km/h (5 Bft)
26.04.2018 17:21 10,9 C 78 % 1011,7 hPa 0,0 l/m 18,5 km/h (3 Bft) W-SW 253 3 min 452 W/m 7,2 C 4,9 C 30,6 km/h (5 Bft)
26.04.2018 17:24 11,0 C 78 % 1011,6 hPa 0,0 l/m 19,5 km/h (3 Bft) W-SW 254 3 min 452 W/m 7,3 C 4,7 C 35,4 km/h (5 Bft)
26.04.2018 17:27 10,9 C 78 % 1011,7 hPa 0,0 l/m 22,6 km/h (4 Bft) W 263 3 min 276 W/m 7,2 C 3,7 C 37,0 km/h (5 Bft)
26.04.2018 17:30 10,8 C 77 % 1011,7 hPa 0,0 l/m 16,4 km/h (3 Bft) W 270 0 min 142 W/m 6,9 C 5,6 C 29,0 km/h (5 Bft)
26.04.2018 17:33 10,7 C 77 % 1011,7 hPa 0,0 l/m 22,2 km/h (4 Bft) W-SW 257 0 min 121 W/m 6,8 C 3,5 C 40,2 km/h (6 Bft)
26.04.2018 17:36 10,6 C 78 % 1011,8 hPa 0,0 l/m 24,3 km/h (4 Bft) SW 223 3 min 378 W/m 6,9 C 2,8 C 38,6 km/h (6 Bft)
26.04.2018 17:39 10,4 C 78 % 1011,9 hPa 0,0 l/m 19,0 km/h (3 Bft) W 265 0 min 155 W/m 6,7 C 4,1 C 33,8 km/h (5 Bft)
26.04.2018 17:42 10,3 C 79 % 1011,8 hPa 0,0 l/m 18,5 km/h (3 Bft) W 263 0 min 149 W/m 6,8 C 4,2 C 30,6 km/h (5 Bft)
26.04.2018 17:45 10,3 C 79 % 1011,9 hPa 0,0 l/m 20,3 km/h (4 Bft) W-NW 296 0 min 178 W/m 6,8 C 3,6 C 30,6 km/h (5 Bft)
26.04.2018 17:48 10,3 C 79 % 1011,9 hPa 0,0 l/m 15,8 km/h (3 Bft) W 261 0 min 130 W/m 6,8 C 5,2 C 27,4 km/h (5 Bft)
26.04.2018 17:51 10,3 C 79 % 1011,9 hPa 0,0 l/m 17,3 km/h (3 Bft) W-SW 253 0 min 186 W/m 6,8 C 4,6 C 37,0 km/h (5 Bft)
26.04.2018 17:54 10,3 C 79 % 1011,9 hPa 0,0 l/m 20,3 km/h (4 Bft) W-SW 250 0 min 186 W/m 6,8 C 3,6 C 33,8 km/h (5 Bft)
26.04.2018 17:57 10,2 C 79 % 1011,8 hPa 0,0 l/m 18,0 km/h (3 Bft) NW 314 0 min 135 W/m 6,7 C 4,2 C 32,2 km/h (5 Bft)
26.04.2018 18:00 10,3 C 79 % 1012,0 hPa 0,0 l/m 22,4 km/h (4 Bft) SW 236 3 min 418 W/m 6,8 C 2,9 C 38,6 km/h (6 Bft)
26.04.2018 18:03 10,3 C 79 % 1011,9 hPa 0,0 l/m 22,3 km/h (4 Bft) W-SW 245 3 min 408 W/m 6,8 C 3,0 C 37,0 km/h (5 Bft)
26.04.2018 18:06 10,4 C 79 % 1011,9 hPa 0,0 l/m 21,2 km/h (4 Bft) W 265 3 min 346 W/m 6,9 C 3,4 C 33,8 km/h (5 Bft)
26.04.2018 18:09 10,6 C 78 % 1011,9 hPa 0,0 l/m 19,8 km/h (3 Bft) W-SW 252 3 min 390 W/m 6,9 C 4,1 C 35,4 km/h (5 Bft)
26.04.2018 18:12 10,8 C 79 % 1011,9 hPa 0,0 l/m 16,2 km/h (3 Bft) W-SW 247 3 min 378 W/m 7,3 C 5,6 C 30,6 km/h (5 Bft)
26.04.2018 18:15 10,7 C 78 % 1012,0 hPa 0,0 l/m 18,5 km/h (3 Bft) W-SW 250 0 min 153 W/m 7,0 C 4,7 C 35,4 km/h (5 Bft)
26.04.2018 18:18 10,4 C 78 % 1012,0 hPa 0,0 l/m 19,4 km/h (3 Bft) W 261 3 min 366 W/m 6,7 C 4,0 C 37,0 km/h (5 Bft)
26.04.2018 18:21 10,4 C 78 % 1012,0 hPa 0,0 l/m 17,8 km/h (3 Bft) W-SW 256 0 min 141 W/m 6,7 C 4,5 C 40,2 km/h (6 Bft)
26.04.2018 18:24 10,3 C 79 % 1012,0 hPa 0,0 l/m 16,8 km/h (3 Bft) W 277 0 min 111 W/m 6,8 C 4,8 C 27,4 km/h (5 Bft)
26.04.2018 18:27 10,2 C 79 % 1012,0 hPa 0,0 l/m 21,7 km/h (4 Bft) W-NW 283 0 min 123 W/m 6,7 C 3,0 C 40,2 km/h (6 Bft)
26.04.2018 18:30 10,2 C 80 % 1012,0 hPa 0,0 l/m 19,0 km/h (3 Bft) W-SW 242 3 min 318 W/m 6,9 C 3,9 C 33,8 km/h (5 Bft)
26.04.2018 18:33 10,2 C 79 % 1012,0 hPa 0,0 l/m 21,5 km/h (4 Bft) W 281 3 min 265 W/m 6,7 C 3,1 C 38,6 km/h (6 Bft)
26.04.2018 18:36 10,3 C 79 % 1011,9 hPa 0,0 l/m 18,5 km/h (3 Bft) W 263 0 min 158 W/m 6,8 C 4,2 C 30,6 km/h (5 Bft)
26.04.2018 18:39 10,4 C 80 % 1012,0 hPa 0,0 l/m 15,4 km/h (3 Bft) W-SW 245 0 min 69 W/m 7,1 C 5,5 C 24,1 km/h (4 Bft)
26.04.2018 18:42 10,4 C 78 % 1012,0 hPa 0,0 l/m 19,3 km/h (3 Bft) W 261 0 min 67 W/m 6,7 C 4,0 C 30,6 km/h (5 Bft)
26.04.2018 18:45 10,3 C 79 % 1012,1 hPa 0,0 l/m 18,0 km/h (3 Bft) W-NW 291 0 min 53 W/m 6,8 C 4,3 C 32,2 km/h (5 Bft)
26.04.2018 18:48 10,2 C 80 % 1012,0 hPa 0,0 l/m 18,3 km/h (3 Bft) W-SW 237 0 min 84 W/m 6,9 C 4,1 C 38,6 km/h (6 Bft)
26.04.2018 18:51 10,2 C 80 % 1012,1 hPa 0,0 l/m 20,3 km/h (4 Bft) W 273 0 min 77 W/m 6,9 C 3,4 C 37,0 km/h (5 Bft)
26.04.2018 18:54 10,2 C 80 % 1012,1 hPa 0,0 l/m 21,3 km/h (4 Bft) W-SW 246 0 min 74 W/m 6,9 C 3,1 C 37,0 km/h (5 Bft)
26.04.2018 18:57 10,2 C 79 % 1012,1 hPa 0,0 l/m 20,0 km/h (4 Bft) S-SW 211 0 min 49 W/m 6,7 C 3,5 C 30,6 km/h (5 Bft)
26.04.2018 19:00 10,2 C 79 % 1012,1 hPa 0,0 l/m 16,3 km/h (3 Bft) W-SW 257 0 min 60 W/m 6,7 C 4,9 C 24,1 km/h (4 Bft)
26.04.2018 19:03 10,1 C 79 % 1012,2 hPa 0,0 l/m 17,0 km/h (3 Bft) W-NW 282 0 min 49 W/m 6,6 C 4,5 C 29,0 km/h (5 Bft)
26.04.2018 19:06 10,1 C 80 % 1012,2 hPa 0,0 l/m 14,2 km/h (3 Bft) W-SW 254 0 min 49 W/m 6,8 C 5,6 C 30,6 km/h (5 Bft)
26.04.2018 19:09 10,2 C 80 % 1012,2 hPa 0,0 l/m 18,7 km/h (3 Bft) W 275 0 min 47 W/m 6,9 C 4,0 C 32,2 km/h (5 Bft)
26.04.2018 19:12 10,1 C 80 % 1012,1 hPa 0,0 l/m 21,6 km/h (4 Bft) W-SW 244 0 min 39 W/m 6,8 C 2,9 C 37,0 km/h (5 Bft)
26.04.2018 19:15 10,0 C 80 % 1012,2 hPa 0,0 l/m 17,0 km/h (3 Bft) W-NW 287 0 min 42 W/m 6,7 C 4,3 C 27,4 km/h (5 Bft)
26.04.2018 19:18 10,0 C 80 % 1012,2 hPa 0,0 l/m 16,9 km/h (3 Bft) W-SW 255 0 min 33 W/m 6,7 C 4,4 C 32,2 km/h (5 Bft)
26.04.2018 19:21 10,0 C 79 % 1012,1 hPa 0,0 l/m 20,9 km/h (4 Bft) W 274 0 min 32 W/m 6,5 C 3,0 C 40,2 km/h (6 Bft)
26.04.2018 19:24 9,9 C 79 % 1012,2 hPa 0,0 l/m 16,4 km/h (3 Bft) W 263 0 min 32 W/m 6,4 C 4,4 C 30,6 km/h (5 Bft)
26.04.2018 19:27 9,9 C 79 % 1012,2 hPa 0,0 l/m 21,4 km/h (4 Bft) W-NW 286 0 min 30 W/m 6,4 C 2,7 C 45,1 km/h (6 Bft)
26.04.2018 19:30 9,9 C 80 % 1012,2 hPa 0,0 l/m 19,3 km/h (3 Bft) W-SW 252 0 min 28 W/m 6,6 C 3,4 C 32,2 km/h (5 Bft)
26.04.2018 19:33 9,8 C 80 % 1012,2 hPa 0,0 l/m 18,1 km/h (3 Bft) W 261 0 min 28 W/m 6,5 C 3,7 C 29,0 km/h (5 Bft)
26.04.2018 19:36 9,8 C 80 % 1012,2 hPa 0,0 l/m 17,6 km/h (3 Bft) W-SW 246 0 min 26 W/m 6,5 C 3,9 C 27,4 km/h (5 Bft)
26.04.2018 19:39 9,8 C 80 % 1012,2 hPa 0,0 l/m 14,9 km/h (3 Bft) W-SW 239 0 min 25 W/m 6,5 C 4,9 C 30,6 km/h (5 Bft)
26.04.2018 19:42 9,8 C 80 % 1012,2 hPa 0,0 l/m 14,9 km/h (3 Bft) N-NO 19 0 min 25 W/m 6,5 C 4,9 C 24,1 km/h (4 Bft)
26.04.2018 19:45 9,8 C 80 % 1012,2 hPa 0,0 l/m 15,4 km/h (3 Bft) W-NW 284 0 min 25 W/m 6,5 C 4,7 C 22,5 km/h (4 Bft)
26.04.2018 19:48 9,7 C 80 % 1012,2 hPa 0,0 l/m 20,1 km/h (4 Bft) W 277 0 min 23 W/m 6,4 C 2,9 C 32,2 km/h (5 Bft)
26.04.2018 19:51 9,7 C 79 % 1012,2 hPa 0,0 l/m 17,7 km/h (3 Bft) W 273 0 min 25 W/m 6,2 C 3,7 C 30,6 km/h (5 Bft)
26.04.2018 19:54 9,7 C 79 % 1012,3 hPa 0,0 l/m 15,8 km/h (3 Bft) W-NW 284 0 min 30 W/m 6,2 C 4,4 C 24,1 km/h (4 Bft)
26.04.2018 19:57 9,7 C 80 % 1012,3 hPa 0,0 l/m 14,1 km/h (3 Bft) W 261 0 min 26 W/m 6,4 C 5,2 C 25,7 km/h (4 Bft)
26.04.2018 20:00 9,7 C 79 % 1012,2 hPa 0,0 l/m 15,9 km/h (3 Bft) W-NW 285 0 min 23 W/m 6,2 C 4,4 C 25,7 km/h (4 Bft)
26.04.2018 20:03 9,7 C 79 % 1012,3 hPa 0,0 l/m 20,1 km/h (4 Bft) W-SW 243 0 min 19 W/m 6,2 C 2,9 C 32,2 km/h (5 Bft)
26.04.2018 20:06 9,7 C 78 % 1012,4 hPa 0,0 l/m 18,0 km/h (3 Bft) W 271 0 min 18 W/m 6,1 C 3,6 C 32,2 km/h (5 Bft)
26.04.2018 20:09 9,7 C 78 % 1012,3 hPa 0,0 l/m 16,0 km/h (3 Bft) SW 227 0 min 19 W/m 6,1 C 4,4 C 25,7 km/h (4 Bft)
26.04.2018 20:12 9,7 C 78 % 1012,3 hPa 0,0 l/m 15,5 km/h (3 Bft) W-SW 246 0 min 19 W/m 6,1 C 4,6 C 25,7 km/h (4 Bft)
26.04.2018 20:15 9,8 C 79 % 1012,3 hPa 0,0 l/m 13,9 km/h (3 Bft) W-SW 248 0 min 21 W/m 6,3 C 5,4 C 20,9 km/h (4 Bft)
26.04.2018 20:18 9,8 C 79 % 1012,4 hPa 0,0 l/m 18,3 km/h (3 Bft) W 270 0 min 14 W/m 6,3 C 3,6 C 30,6 km/h (5 Bft)
26.04.2018 20:21 9,8 C 78 % 1012,4 hPa 0,0 l/m 14,9 km/h (3 Bft) SW 229 0 min 11 W/m 6,1 C 4,9 C 20,9 km/h (4 Bft)
26.04.2018 20:24 9,8 C 78 % 1012,4 hPa 0,0 l/m 17,8 km/h (3 Bft) W-NW 286 0 min 11 W/m 6,1 C 3,8 C 33,8 km/h (5 Bft)
26.04.2018 20:27 9,8 C 78 % 1012,4 hPa 0,0 l/m 16,2 km/h (3 Bft) W 281 0 min 9 W/m 6,1 C 4,4 C 32,2 km/h (5 Bft)
26.04.2018 20:30 9,8 C 77 % 1012,5 hPa 0,0 l/m 17,0 km/h (3 Bft) W-SW 237 0 min 7 W/m 6,0 C 4,1 C 29,0 km/h (5 Bft)
26.04.2018 20:33 9,8 C 77 % 1012,5 hPa 0,0 l/m 19,1 km/h (3 Bft) W 273 0 min 7 W/m 6,0 C 3,3 C 30,6 km/h (5 Bft)
26.04.2018 20:36 9,8 C 77 % 1012,5 hPa 0,0 l/m 20,1 km/h (4 Bft) W 271 0 min 5 W/m 6,0 C 3,0 C 30,6 km/h (5 Bft)
26.04.2018 20:39 9,8 C 77 % 1012,5 hPa 0,0 l/m 17,5 km/h (3 Bft) SW 225 0 min 5 W/m 6,0 C 3,9 C 33,8 km/h (5 Bft)
26.04.2018 20:42 9,7 C 77 % 1012,6 hPa 0,0 l/m 21,2 km/h (4 Bft) W 265 0 min 0 W/m 5,9 C 2,5 C 32,2 km/h (5 Bft)
26.04.2018 20:45 9,7 C 77 % 1012,6 hPa 0,0 l/m 19,6 km/h (3 Bft) W-NW 286 0 min 0 W/m 5,9 C 3,0 C 32,2 km/h (5 Bft)
26.04.2018 20:48 9,7 C 77 % 1012,6 hPa 0,0 l/m 18,0 km/h (3 Bft) W-SW 247 0 min 0 W/m 5,9 C 3,6 C 33,8 km/h (5 Bft)
26.04.2018 20:51 9,7 C 78 % 1012,6 hPa 0,0 l/m 14,0 km/h (3 Bft) SW 225 0 min 0 W/m 6,1 C 5,2 C 24,1 km/h (4 Bft)
26.04.2018 20:54 9,7 C 78 % 1012,6 hPa 0,0 l/m 17,9 km/h (3 Bft) W-NW 300 0 min 0 W/m 6,1 C 3,6 C 27,4 km/h (5 Bft)
26.04.2018 20:57 9,7 C 78 % 1012,6 hPa 0,0 l/m 13,2 km/h (3 Bft) W-SW 251 0 min 0 W/m 6,1 C 5,6 C 25,7 km/h (4 Bft)
26.04.2018 21:00 9,7 C 78 % 1012,6 hPa 0,0 l/m 12,6 km/h (3 Bft) W-SW 238 0 min 0 W/m 6,1 C 5,9 C 20,9 km/h (4 Bft)
26.04.2018 21:03 9,7 C 78 % 1012,6 hPa 0,0 l/m 14,3 km/h (3 Bft) NW 306 0 min 0 W/m 6,1 C 5,1 C 20,9 km/h (4 Bft)
26.04.2018 21:06 9,7 C 78 % 1012,6 hPa 0,0 l/m 16,2 km/h (3 Bft) W 262 0 min 0 W/m 6,1 C 4,3 C 25,7 km/h (4 Bft)
26.04.2018 21:09 9,8 C 78 % 1012,6 hPa 0,0 l/m 12,2 km/h (2 Bft) W-SW 250 0 min 0 W/m 6,1 C 6,2 C 22,5 km/h (4 Bft)
26.04.2018 21:12 9,8 C 78 % 1012,6 hPa 0,0 l/m 14,2 km/h (3 Bft) SW 236 0 min 0 W/m 6,1 C 5,2 C 22,5 km/h (4 Bft)
26.04.2018 21:15 9,8 C 77 % 1012,7 hPa 0,0 l/m 13,3 km/h (3 Bft) W-SW 242 0 min 0 W/m 6,0 C 5,6 C 22,5 km/h (4 Bft)
26.04.2018 21:18 9,8 C 77 % 1012,7 hPa 0,0 l/m 15,5 km/h (3 Bft) W-SW 242 0 min 0 W/m 6,0 C 4,7 C 24,1 km/h (4 Bft)
26.04.2018 21:21 9,8 C 77 % 1012,8 hPa 0,0 l/m 11,5 km/h (2 Bft) SW 235 0 min 0 W/m 6,0 C 6,5 C 25,7 km/h (4 Bft)
26.04.2018 21:24 9,8 C 78 % 1012,8 hPa 0,0 l/m 13,6 km/h (3 Bft) W 265 0 min 0 W/m 6,1 C 5,5 C 24,1 km/h (4 Bft)
26.04.2018 21:27 9,8 C 77 % 1012,8 hPa 0,0 l/m 14,6 km/h (3 Bft) SW 232 0 min 0 W/m 6,0 C 5,1 C 29,0 km/h (5 Bft)
26.04.2018 21:30 9,8 C 77 % 1012,8 hPa 0,0 l/m 12,1 km/h (2 Bft) W-SW 238 0 min 0 W/m 6,0 C 6,2 C 22,5 km/h (4 Bft)
26.04.2018 21:33 9,8 C 77 % 1012,8 hPa 0,0 l/m 13,9 km/h (3 Bft) W 275 0 min 0 W/m 6,0 C 5,4 C 22,5 km/h (4 Bft)
26.04.2018 21:36 9,8 C 77 % 1012,8 hPa 0,0 l/m 14,2 km/h (3 Bft) W-NW 292 0 min 0 W/m 6,0 C 5,2 C 24,1 km/h (4 Bft)
26.04.2018 21:39 9,7 C 77 % 1012,7 hPa 0,0 l/m 13,3 km/h (3 Bft) W 269 0 min 0 W/m 5,9 C 5,5 C 25,7 km/h (4 Bft)
26.04.2018 21:42 9,7 C 77 % 1012,8 hPa 0,0 l/m 12,9 km/h (3 Bft) SW 226 0 min 0 W/m 5,9 C 5,7 C 19,3 km/h (3 Bft)
26.04.2018 21:45 9,7 C 77 % 1012,7 hPa 0,0 l/m 15,0 km/h (3 Bft) W-SW 247 0 min 0 W/m 5,9 C 4,8 C 27,4 km/h (5 Bft)
26.04.2018 21:48 9,7 C 77 % 1012,8 hPa 0,0 l/m 9,1 km/h (2 Bft) SW 220 0 min 0 W/m 5,9 C 7,8 C 14,5 km/h (3 Bft)
26.04.2018 21:51 9,7 C 77 % 1012,7 hPa 0,0 l/m 14,3 km/h (3 Bft) W 265 0 min 0 W/m 5,9 C 5,1 C 25,7 km/h (4 Bft)
26.04.2018 21:54 9,7 C 77 % 1012,8 hPa 0,0 l/m 17,6 km/h (3 Bft) W 278 0 min 0 W/m 5,9 C 3,7 C 27,4 km/h (5 Bft)
26.04.2018 21:57 9,7 C 76 % 1012,7 hPa 0,0 l/m 10,4 km/h (2 Bft) W-SW 240 0 min 0 W/m 5,7 C 7,0 C 27,4 km/h (5 Bft)
26.04.2018 22:00 9,7 C 77 % 1012,8 hPa 0,0 l/m 15,6 km/h (3 Bft) W 271 0 min 0 W/m 5,9 C 4,5 C 25,7 km/h (4 Bft)
26.04.2018 22:03 9,7 C 77 % 1012,8 hPa 0,0 l/m 11,0 km/h (2 Bft) W-SW 239 0 min 0 W/m 5,9 C 6,7 C 20,9 km/h (4 Bft)
26.04.2018 22:06 9,7 C 77 % 1012,8 hPa 0,0 l/m 11,0 km/h (2 Bft) W-SW 252 0 min 0 W/m 5,9 C 6,7 C 20,9 km/h (4 Bft)
26.04.2018 22:09 9,7 C 77 % 1012,8 hPa 0,0 l/m 12,3 km/h (2 Bft) W-SW 256 0 min 0 W/m 5,9 C 6,0 C 20,9 km/h (4 Bft)
26.04.2018 22:12 9,7 C 77 % 1012,8 hPa 0,0 l/m 10,7 km/h (2 Bft) SW 219 0 min 0 W/m 5,9 C 6,9 C 27,4 km/h (5 Bft)
26.04.2018 22:15 9,7 C 77 % 1012,8 hPa 0,0 l/m 14,9 km/h (3 Bft) W 261 0 min 0 W/m 5,9 C 4,8 C 27,4 km/h (5 Bft)
26.04.2018 22:18 9,7 C 77 % 1012,7 hPa 0,0 l/m 12,6 km/h (3 Bft) W-SW 256 0 min 0 W/m 5,9 C 5,9 C 27,4 km/h (5 Bft)
26.04.2018 22:21 9,8 C 78 % 1012,7 hPa 0,0 l/m 11,1 km/h (2 Bft) W-SW 248 0 min 0 W/m 6,1 C 6,8 C 17,7 km/h (3 Bft)
26.04.2018 22:24 9,8 C 78 % 1012,7 hPa 0,0 l/m 11,7 km/h (2 Bft) SW 236 0 min 0 W/m 6,1 C 6,4 C 22,5 km/h (4 Bft)
26.04.2018 22:27 9,8 C 79 % 1012,7 hPa 0,0 l/m 13,8 km/h (3 Bft) W-SW 240 0 min 0 W/m 6,3 C 5,4 C 24,1 km/h (4 Bft)
26.04.2018 22:30 9,7 C 79 % 1012,7 hPa 0,0 l/m 12,6 km/h (3 Bft) SW 232 0 min 0 W/m 6,2 C 5,9 C 17,7 km/h (3 Bft)
26.04.2018 22:33 9,7 C 79 % 1012,7 hPa 0,0 l/m 10,6 km/h (2 Bft) S-SW 207 0 min 0 W/m 6,2 C 6,9 C 16,1 km/h (3 Bft)
26.04.2018 22:36 9,6 C 80 % 1012,7 hPa 0,0 l/m 11,1 km/h (2 Bft) SW 228 0 min 0 W/m 6,3 C 6,5 C 17,7 km/h (3 Bft)
26.04.2018 22:39 9,6 C 80 % 1012,6 hPa 0,0 l/m 11,4 km/h (2 Bft) SW 217 0 min 0 W/m 6,3 C 6,4 C 16,1 km/h (3 Bft)
26.04.2018 22:42 9,5 C 80 % 1012,6 hPa 0,0 l/m 10,4 km/h (2 Bft) W 269 0 min 0 W/m 6,2 C 6,8 C 16,1 km/h (3 Bft)
26.04.2018 22:45 9,4 C 80 % 1012,6 hPa 0,0 l/m 11,5 km/h (2 Bft) SW 221 0 min 0 W/m 6,1 C 6,1 C 17,7 km/h (3 Bft)
26.04.2018 22:48 9,4 C 80 % 1012,6 hPa 0,0 l/m 9,9 km/h (2 Bft) SW 223 0 min 0 W/m 6,1 C 7,0 C 17,7 km/h (3 Bft)
26.04.2018 22:51 9,3 C 80 % 1012,6 hPa 0,0 l/m 9,4 km/h (2 Bft) SW 217 0 min 0 W/m 6,0 C 7,2 C 16,1 km/h (3 Bft)
26.04.2018 22:54 9,3 C 81 % 1012,6 hPa 0,0 l/m 9,6 km/h (2 Bft) W-SW 242 0 min 0 W/m 6,2 C 7,1 C 14,5 km/h (3 Bft)
26.04.2018 22:57 9,3 C 81 % 1012,6 hPa 0,0 l/m 8,6 km/h (2 Bft) SW 223 0 min 0 W/m 6,2 C 7,7 C 12,9 km/h (3 Bft)
26.04.2018 23:00 9,2 C 81 % 1012,6 hPa 0,0 l/m 8,2 km/h (2 Bft) SW 234 0 min 0 W/m 6,1 C 7,9 C 11,3 km/h (2 Bft)
26.04.2018 23:03 9,2 C 82 % 1012,6 hPa 0,0 l/m 8,2 km/h (2 Bft) SW 216 0 min 0 W/m 6,3 C 7,9 C 12,9 km/h (3 Bft)
26.04.2018 23:06 9,2 C 82 % 1012,6 hPa 0,0 l/m 10,4 km/h (2 Bft) S-SW 196 0 min 0 W/m 6,3 C 6,5 C 17,7 km/h (3 Bft)
26.04.2018 23:09 9,2 C 82 % 1012,6 hPa 0,0 l/m 10,8 km/h (2 Bft) SW 225 0 min 0 W/m 6,3 C 6,2 C 16,1 km/h (3 Bft)
26.04.2018 23:12 9,2 C 82 % 1012,6 hPa 0,0 l/m 10,8 km/h (2 Bft) SW 235 0 min 0 W/m 6,3 C 6,2 C 14,5 km/h (3 Bft)
26.04.2018 23:15 9,2 C 82 % 1012,6 hPa 0,0 l/m 11,9 km/h (2 Bft) W-SW 240 0 min 0 W/m 6,3 C 5,6 C 19,3 km/h (3 Bft)
26.04.2018 23:18 9,3 C 82 % 1012,6 hPa 0,0 l/m 11,9 km/h (2 Bft) SW 235 0 min 0 W/m 6,4 C 5,8 C 20,9 km/h (4 Bft)
26.04.2018 23:21 9,3 C 81 % 1012,6 hPa 0,0 l/m 12,5 km/h (2 Bft) W-SW 239 0 min 0 W/m 6,2 C 5,5 C 17,7 km/h (3 Bft)
26.04.2018 23:24 9,4 C 81 % 1012,6 hPa 0,0 l/m 11,3 km/h (2 Bft) SW 234 0 min 0 W/m 6,3 C 6,2 C 17,7 km/h (3 Bft)
26.04.2018 23:27 9,4 C 81 % 1012,6 hPa 0,0 l/m 13,1 km/h (3 Bft) W-SW 255 0 min 0 W/m 6,3 C 5,3 C 20,9 km/h (4 Bft)
26.04.2018 23:30 9,5 C 81 % 1012,6 hPa 0,0 l/m 13,1 km/h (3 Bft) S-SW 207 0 min 0 W/m 6,4 C 5,4 C 22,5 km/h (4 Bft)
26.04.2018 23:33 9,5 C 80 % 1012,6 hPa 0,0 l/m 14,1 km/h (3 Bft) SW 234 0 min 0 W/m 6,2 C 4,9 C 22,5 km/h (4 Bft)
26.04.2018 23:36 9,6 C 80 % 1012,6 hPa 0,0 l/m 14,1 km/h (3 Bft) SW 215 0 min 0 W/m 6,3 C 5,0 C 22,5 km/h (4 Bft)
26.04.2018 23:39 9,6 C 80 % 1012,6 hPa 0,0 l/m 15,4 km/h (3 Bft) W-SW 250 0 min 0 W/m 6,3 C 4,5 C 24,1 km/h (4 Bft)
26.04.2018 23:42 9,6 C 80 % 1012,7 hPa 0,0 l/m 12,4 km/h (2 Bft) SW 219 0 min 0 W/m 6,3 C 5,9 C 24,1 km/h (4 Bft)
26.04.2018 23:45 9,7 C 80 % 1012,6 hPa 0,0 l/m 14,1 km/h (3 Bft) SW 229 0 min 0 W/m 6,4 C 5,2 C 22,5 km/h (4 Bft)
26.04.2018 23:48 9,7 C 80 % 1012,7 hPa 0,0 l/m 14,9 km/h (3 Bft) W-SW 240 0 min 0 W/m 6,4 C 4,8 C 22,5 km/h (4 Bft)
26.04.2018 23:51 9,7 C 80 % 1012,7 hPa 0,0 l/m 13,5 km/h (3 Bft) W-SW 243 0 min 0 W/m 6,4 C 5,4 C 22,5 km/h (4 Bft)
26.04.2018 23:54 9,8 C 80 % 1012,7 hPa 0,0 l/m 13,8 km/h (3 Bft) SW 227 0 min 0 W/m 6,5 C 5,4 C 19,3 km/h (3 Bft)
26.04.2018 23:57 9,8 C 80 % 1012,7 hPa 0,0 l/m 13,6 km/h (3 Bft) S-SW 204 0 min 0 W/m 6,5 C 5,5 C 19,3 km/h (3 Bft)
_ Min-Zeit 04:45 15:27 03:30 - 02:42 - - - - 21:57 07:39 02:06
Minimum _ 7,3 C 74 % 1006,8 hPa - 3,2 km/h (1 Bft) - - - - 5,7 C 1,5 C 4,8 km/h (1 Bft)
_ Max-Zeit 14:48 07:21 21:21 04:33 17:36 - - 09:21 14:42 11:30 00:54 15:24
Maximum _ 12,2 C 95 % 1012,8 hPa 0,4 l/m 24,3 km/h
SW (4 Bft)
- - 3 min 986 W/m 8,7 C 8,7 C 45,1 km/h
W-NW (6 Bft)
Durchschnitt _ 9,6 C 84 % 1009,7 hPa #3,6 l/m 13,9 km/h (3 Bft) W-SW - #6:33 h 347 W/m 7,0 C 5,5 C 24,1 km/h (4 Bft)
2018 Cux-Wetter.de -Die Nutzung der Wetterdaten nur mit ausdrcklicher Genehmigung